GFSNW_500_spd_000.txt.gz
Wind_Speed
23 20 18 15 13 12 13 14 14 14 13 11 10 7 9 7 7 7 8 9 8 9 10 12 13 11 13 13 14 14 15 17 21 24 26 27 24 24 29 37 38 36 43 43
25 22 20 18 15 13 12 13 14 14 13 11 10 9 8 9 10 9 10 11 12 13 15 17 17 17 17 17 20 22 22 22 21 28 31 32 26 23 31 38 41 42 47 46
27 25 23 21 18 14 14 14 14 14 12 11 9 8 7 8 9 10 12 13 13 16 17 18 20 21 20 22 23 23 25 25 26 26 31 36 29 25 31 39 42 47 44 50
29 27 26 24 20 17 14 13 13 13 13 10 10 9 9 7 6 8 9 10 12 15 17 18 20 23 25 25 25 26 27 27 27 26 31 36 33 35 37 39 36 41 37 39
32 30 28 26 24 21 17 15 13 14 11 12 13 12 10 9 10 11 14 15 17 18 20 21 22 23 24 25 27 29 31 32 37 30 37 41 36 35 37 37 36 40 42 44
34 33 32 31 29 25 22 19 17 16 14 14 15 14 13 13 13 15 17 20 24 24 23 23 24 27 28 29 29 29 33 38 41 41 38 40 30 32 35 37 37 42 43 41
35 34 34 33 31 28 27 23 20 20 18 18 18 19 19 19 20 25 27 25 28 25 26 30 29 29 32 34 34 34 37 40 42 43 41 44 27 38 40 45 44 43 43 45
37 37 36 35 34 31 32 29 26 24 24 23 24 25 25 26 26 29 34 31 31 35 37 36 33 34 35 38 36 33 37 38 38 39 45 49 36 44 48 53 52 50 47 52
37 37 36 35 35 34 34 34 31 29 28 27 28 29 29 31 34 35 38 39 38 42 40 44 40 33 34 33 33 32 33 35 37 40 47 52 42 48 52 56 56 55 58 59
38 37 38 36 36 36 36 36 35 34 32 30 33 34 36 37 38 38 42 42 44 46 46 45 41 39 36 37 34 33 35 36 36 41 45 50 45 50 51 55 61 63 63 62
41 40 38 38 38 37 36 37 37 36 36 37 37 38 38 42 45 46 47 51 50 50 48 46 42 41 39 39 38 37 38 41 42 47 52 53 52 52 52 58 61 62 62 63
43 42 40 39 40 40 39 39 41 43 42 42 42 42 44 48 47 50 54 51 50 49 46 41 42 41 43 42 44 38 43 41 47 47 53 48 49 54 58 59 62 64 63 63
46 45 43 41 42 43 45 47 47 48 49 51 49 48 50 49 52 54 53 51 48 42 40 40 40 44 42 44 47 49 49 48 48 55 49 54 57 57 58 61 63 63 65 66
54 52 52 52 51 50 54 51 55 56 56 57 52 52 51 50 49 49 49 43 42 41 40 39 40 44 48 49 50 54 51 53 56 59 55 62 60 62 64 64 65 68 69 62
60 60 56 58 61 62 53 53 52 51 53 56 54 51 46 45 46 45 41 42 38 37 39 41 41 44 47 49 53 56 52 57 58 59 57 65 64 68 65 67 69 66 69 67
43 46 50 52 45 46 49 50 51 49 46 50 53 49 42 39 38 42 44 43 41 41 41 43 45 47 52 56 57 55 51 56 60 62 63 65 68 65 69 70 69 71 71 75
45 42 41 42 42 43 44 44 41 39 44 45 44 43 39 39 41 43 45 45 45 47 48 48 50 52 56 59 60 49 57 58 60 62 67 67 67 69 70 68 67 69 73 69
50 49 48 47 45 45 46 45 47 46 45 46 48 47 51 49 47 45 45 48 51 53 53 55 55 57 59 61 53 59 59 60 62 65 67 68 69 69 70 70 69 62 61 65
56 53 51 51 50 49 49 49 51 52 48 45 47 46 53 54 56 56 54 52 53 57 58 56 59 60 62 57 60 59 60 63 65 67 68 68 69 69 69 71 70 62 66 74
60 59 57 56 53 50 51 53 52 53 56 54 59 59 59 58 62 63 66 66 66 68 67 66 64 61 56 60 62 63 63 64 67 66 67 67 67 69 68 67 66 67 69 71
62 62 61 59 58 55 53 52 55 58 60 60 59 62 64 62 60 59 63 66 68 70 68 67 66 63 63 64 64 65 66 66 66 66 64 62 63 65 66 66 66 70 72 72
61 59 58 57 59 57 57 58 59 60 63 64 62 58 58 60 61 61 62 61 62 62 63 65 67 65 64 65 65 65 68 68 67 66 65 65 66 68 70 71 71 70 69 64
52 54 54 55 55 56 58 57 58 57 55 55 54 54 55 56 56 56 57 59 60 61 62 62 63 59 61 65 67 67 66 64 64 64 63 63 67 69 71 70 69 67 63 62
44 45 46 46 48 51 52 50 48 47 47 47 49 49 50 51 53 54 56 60 61 62 62 60 58 59 61 63 62 62 60 60 61 63 66 68 69 69 69 67 66 66 64 61
43 43 45 45 45 45 44 44 45 46 47 48 51 53 54 55 56 56 58 60 64 61 55 56 59 61 61 61 59 60 61 63 64 65 67 68 69 67 64 63 65 66 64 58
45 45 44 43 45 47 48 49 50 50 51 51 52 51 53 53 55 57 57 58 53 50 53 56 58 59 59 59 59 61 64 66 67 67 67 66 63 64 66 65 61 58 52 43
47 45 47 47 47 47 47 48 49 50 50 50 51 51 52 56 58 57 49 45 47 51 54 55 56 58 58 59 63 64 64 65 64 63 61 62 63 64 59 54 48 42 36 23

GFSNW_500_spd_003.txt.gz
Wind_Speed
28 26 23 21 19 19 20 19 19 17 16 13 11 9 8 8 6 6 6 5 7 8 9 10 11 13 13 15 15 14 15 18 20 22 22 21 25 28 32 36 36 35 41 41
29 26 23 20 19 17 16 16 16 17 17 14 11 10 9 7 7 8 6 6 7 9 12 14 15 17 19 19 21 20 20 21 23 25 25 22 23 28 34 38 40 40 42 38
31 28 25 22 20 17 17 16 15 14 14 12 10 8 7 8 8 7 6 6 8 10 12 14 17 18 19 20 21 22 23 23 24 26 29 25 22 27 35 39 40 43 34 39
31 29 27 25 22 19 17 14 14 14 13 11 9 9 9 9 7 5 3 5 8 11 15 17 17 18 19 21 23 25 25 24 25 27 30 33 28 31 32 35 33 38 34 35
32 31 29 27 25 22 18 15 14 14 14 13 12 11 10 9 9 8 7 8 11 16 19 22 24 24 24 24 26 29 29 31 33 28 37 40 31 30 37 35 32 38 41 44
35 34 32 30 29 27 23 19 17 17 17 16 15 14 14 13 13 12 13 16 20 23 23 22 20 24 28 31 32 32 33 39 43 39 36 38 26 31 36 37 37 41 45 44
36 35 34 32 31 31 28 24 22 20 19 19 18 17 17 17 17 16 18 21 25 28 30 30 31 32 33 36 39 38 40 42 44 44 41 40 22 35 41 43 44 43 47 44
38 37 36 34 33 32 32 29 27 25 23 22 22 22 21 22 22 22 23 25 29 31 33 36 36 37 41 43 39 37 38 39 43 42 44 45 30 38 42 45 48 46 51 52
37 36 35 34 34 34 33 33 31 30 28 27 27 28 27 26 28 29 30 31 32 35 39 43 43 45 45 46 41 34 37 39 40 39 45 47 38 46 49 53 54 55 58 58
37 36 36 35 33 33 33 33 33 32 32 31 31 31 32 33 34 35 36 37 40 44 45 46 47 49 49 47 41 37 36 40 39 40 45 46 44 50 51 53 57 58 59 59
38 38 37 36 35 34 34 35 35 35 35 34 34 35 36 37 38 39 40 44 46 50 49 49 50 53 50 45 41 37 36 38 36 42 43 43 46 53 55 58 60 60 59 60
39 39 39 39 39 37 37 37 37 37 37 37 37 36 37 40 43 44 46 51 52 55 50 47 50 50 47 44 42 32 38 36 39 43 44 44 48 56 58 60 61 59 62 64
42 41 41 41 41 40 39 37 37 38 39 39 37 37 42 46 47 50 51 53 56 50 47 48 46 47 43 40 42 42 41 34 42 46 42 47 54 54 58 61 62 63 67 68
45 45 45 44 43 42 41 41 41 41 41 41 40 44 49 53 55 55 56 55 52 44 46 42 45 44 40 41 42 45 42 44 45 53 55 57 55 56 60 64 67 67 69 73
47 46 47 49 47 47 45 44 46 46 50 54 50 52 57 56 52 52 52 49 49 42 41 40 42 44 45 45 47 49 44 49 55 60 59 61 63 65 56 66 69 73 74 77
54 51 53 52 48 48 48 55 56 57 57 59 63 60 53 51 48 48 49 46 42 42 43 44 45 45 50 53 54 49 50 56 61 63 64 65 65 65 69 71 73 76 77 78
63 60 56 54 53 60 62 61 58 57 60 55 53 52 44 38 40 43 44 43 43 46 49 49 49 50 54 57 58 52 59 63 65 66 67 69 70 70 72 74 75 76 76 74
48 50 53 58 53 52 53 52 51 49 47 46 48 46 43 42 45 41 41 41 42 46 48 50 53 57 59 60 53 60 64 67 68 68 68 69 72 74 74 76 76 74 73 69
55 54 55 56 52 50 48 47 51 48 48 50 47 47 49 49 46 45 42 44 47 49 52 53 57 60 61 60 66 67 68 68 69 69 72 75 74 74 74 74 74 70 67 68
56 55 54 53 54 54 54 51 53 53 54 55 54 53 52 50 49 51 53 54 56 58 58 60 61 61 61 65 65 65 64 67 71 71 71 71 70 70 69 67 66 69 73 74
64 62 56 55 56 56 56 59 59 56 56 57 56 56 55 51 51 55 59 61 63 66 67 68 68 67 64 64 65 67 69 70 70 69 68 70 69 70 74 74 71 70 71 73
58 60 61 60 59 60 62 61 62 62 62 59 53 48 48 51 55 59 63 65 68 68 67 66 67 65 64 65 66 69 70 70 71 72 72 73 71 68 68 69 71 73 74 75
58 58 60 61 61 61 62 60 61 59 54 53 50 49 52 54 56 58 59 61 62 64 64 63 61 60 62 64 65 69 71 70 70 69 68 65 65 66 69 72 72 73 73 73
50 53 55 57 57 60 59 55 53 53 52 52 50 51 52 53 53 54 56 58 60 62 61 59 61 63 64 66 69 71 69 66 64 63 63 64 66 69 69 70 72 71 70 71
43 45 48 49 51 52 51 49 46 44 44 44 46 48 49 48 51 52 56 58 61 60 56 60 64 66 68 70 68 63 59 60 62 62 63 66 69 70 70 67 67 70 70 66
47 48 47 47 47 47 48 47 47 47 47 48 49 49 51 53 55 56 56 57 54 55 62 65 67 68 65 61 57 58 60 61 63 65 67 67 66 65 65 65 66 62 53 47
47 46 46 47 46 46 46 47 48 48 49 49 50 50 51 53 55 56 52 52 56 61 65 65 61 58 56 56 58 60 63 64 64 64 62 61 63 65 64 60 50 41 36 31

GFSNW_500_spd_006.txt.gz
Wind_Speed
35 35 34 33 32 31 28 26 24 23 21 18 16 12 8 5 5 4 4 5 4 5 6 7 10 13 15 15 16 17 18 20 21 21 22 24 24 26 30 33 34 34 35 32
34 33 32 29 28 27 25 25 23 23 22 18 14 11 9 7 6 6 6 6 6 6 7 9 12 14 15 18 19 19 20 20 22 22 24 26 27 27 30 36 38 38 38 36
33 31 29 27 25 23 22 21 20 20 19 17 12 10 9 8 8 7 6 6 6 5 7 11 14 16 17 18 20 21 22 23 25 27 27 27 27 29 35 40 42 44 36 40
34 31 28 26 25 22 21 20 20 19 17 15 12 10 10 9 8 8 7 5 5 5 10 14 16 19 21 21 23 25 26 27 31 31 32 32 28 32 36 41 41 42 40 40
34 32 29 27 25 22 20 19 20 19 17 14 12 11 11 10 9 8 8 8 8 10 14 16 18 21 22 25 29 31 31 34 35 34 39 40 33 34 39 39 37 38 42 43
35 34 31 29 27 25 22 19 18 18 18 16 15 15 14 13 11 11 11 13 15 16 19 21 22 24 29 31 34 37 41 44 44 40 38 40 30 30 37 39 38 40 43 45
36 35 34 32 29 27 25 23 21 20 20 18 18 17 16 16 16 16 16 18 20 22 25 26 27 29 31 35 36 41 44 47 48 49 44 41 26 32 40 41 42 41 46 48
38 38 36 34 31 29 29 28 26 24 23 21 20 20 20 20 20 21 22 23 24 27 29 30 31 34 38 40 40 42 46 48 48 48 49 47 32 35 40 43 44 45 47 50
38 37 36 35 34 32 31 30 29 28 26 25 24 23 23 23 24 25 26 28 30 31 33 35 39 43 45 47 46 45 46 46 45 45 46 48 37 41 44 47 49 51 52 55
38 38 36 35 35 34 33 32 32 31 31 30 29 28 28 28 29 30 31 32 33 36 38 42 45 48 49 47 44 45 42 40 36 37 42 42 41 44 46 49 53 55 59 62
39 39 38 37 35 35 36 35 35 34 34 33 33 32 33 33 34 34 35 35 36 41 44 46 50 54 52 46 41 40 40 40 36 40 40 38 41 44 48 51 55 59 62 65
43 41 40 38 37 35 35 35 35 35 35 35 35 36 36 36 37 38 37 36 42 47 48 52 57 54 47 41 40 34 35 32 39 41 42 40 46 49 54 57 60 62 64 67
43 43 42 39 38 37 36 36 35 36 36 36 37 37 37 38 38 37 37 40 47 50 54 54 53 50 46 40 39 39 36 35 40 47 43 47 50 52 57 57 62 67 69 71
44 43 42 40 40 39 39 38 38 38 38 38 39 39 40 40 40 39 45 52 53 57 58 56 53 50 47 41 41 42 38 45 48 52 51 55 58 60 61 66 69 71 70 67
45 46 45 44 43 42 41 41 40 39 40 42 40 41 42 43 43 46 51 55 60 59 55 53 48 42 41 44 47 43 43 47 53 55 58 59 64 67 70 74 76 73 72 73
45 48 45 45 45 44 44 43 43 43 44 46 45 43 47 49 50 52 55 58 54 50 46 47 45 41 45 47 48 46 48 54 56 58 60 64 68 72 76 77 75 73 75 77
47 49 49 47 46 45 44 45 45 47 48 49 50 51 53 53 57 55 54 50 47 45 46 46 44 41 46 49 50 48 54 57 61 63 66 69 72 74 75 74 75 78 77 76
57 55 50 50 49 49 50 50 50 50 51 52 57 60 57 56 54 50 48 47 48 49 50 50 47 49 52 54 51 54 58 62 66 69 71 72 72 72 74 77 76 74 76 76
48 56 55 57 60 60 59 57 58 61 60 59 61 56 50 49 48 50 47 48 49 51 51 52 53 55 58 58 57 59 64 68 70 69 71 72 73 73 74 74 75 76 75 74
48 46 53 56 55 44 46 46 48 51 52 53 54 53 53 53 52 53 55 56 55 56 56 56 55 56 58 60 62 67 69 69 70 71 71 71 72 72 74 74 73 74 74 73
53 53 52 51 53 53 52 51 51 52 56 58 56 55 53 54 55 54 58 61 62 62 60 60 60 61 61 64 66 68 68 68 68 70 72 72 72 73 76 77 74 72 73 73
48 52 57 57 56 54 54 54 53 54 55 55 50 50 53 56 57 58 61 61 61 61 61 62 63 62 64 65 66 67 68 69 71 72 71 73 75 76 74 72 73 73 73 74
63 63 59 57 62 63 62 58 57 57 55 53 54 55 55 56 57 57 57 59 60 61 62 62 60 60 62 64 65 68 69 69 69 71 73 74 72 69 69 70 71 73 72 70
54 56 58 62 63 65 65 63 59 57 56 56 56 57 57 55 55 56 56 57 59 60 59 56 59 62 64 65 66 66 66 67 70 70 69 67 66 67 68 69 69 69 66 66
47 50 55 56 55 54 53 53 52 51 52 51 51 53 54 53 54 53 54 57 58 57 57 60 62 64 64 63 63 65 68 69 67 64 63 64 66 67 65 64 64 66 67 64
43 41 39 39 40 41 42 44 44 45 47 48 49 50 52 54 53 54 55 56 55 57 60 62 64 62 61 62 64 65 65 62 61 61 63 64 64 63 62 63 65 65 61 51
42 40 40 40 42 43 44 45 46 47 48 49 50 52 51 53 55 56 55 54 57 61 64 62 60 60 60 61 61 60 58 59 61 62 62 60 60 62 64 64 60 54 43 38

GFSNW_500_spd_009.txt.gz
Wind_Speed
39 41 43 43 41 38 36 34 30 28 25 21 18 15 12 10 7 4 3 4 3 2 2 3 5 8 10 11 13 14 15 16 18 19 20 22 23 25 28 30 32 33 36 31
35 40 40 40 40 38 35 33 30 26 22 18 16 13 14 12 9 8 7 5 4 3 2 3 5 7 10 12 14 15 17 17 20 22 23 24 26 28 29 32 36 35 37 36
32 35 38 39 38 37 35 30 26 22 20 19 17 15 14 12 11 9 7 6 4 2 1 3 7 10 11 12 14 17 20 22 24 26 28 29 31 35 37 40 42 45 37 40
33 33 34 34 34 33 29 26 24 23 20 20 19 16 14 11 10 9 7 5 4 3 3 6 10 13 16 19 22 24 27 27 29 31 33 34 32 35 39 42 42 43 39 39
33 34 34 33 31 29 26 25 24 22 20 20 19 17 14 12 11 10 8 6 6 7 9 11 15 18 19 22 25 31 35 37 39 37 39 38 30 32 36 40 40 40 41 41
33 34 33 32 30 28 24 23 23 22 20 20 20 19 16 14 13 12 11 11 11 12 14 17 19 21 23 24 30 35 40 43 45 42 41 40 32 32 36 38 37 40 42 43
35 35 33 31 29 27 25 24 22 21 21 22 21 19 18 17 15 15 15 15 15 17 19 21 22 24 26 29 33 38 42 46 47 47 44 42 28 34 37 37 35 38 40 42
36 35 34 33 30 29 27 25 23 22 23 23 22 21 20 18 17 17 18 19 20 22 24 25 26 28 31 33 36 41 46 46 46 47 48 46 27 31 32 36 35 38 40 42
36 36 34 33 32 31 29 28 27 25 24 23 22 22 21 20 21 21 22 23 24 27 28 29 30 30 33 36 40 44 44 42 41 43 45 42 33 36 38 40 40 44 43 48
36 35 34 34 33 32 31 30 29 28 28 26 26 26 26 25 25 25 27 28 29 31 32 32 32 34 37 40 44 42 40 42 39 39 40 34 35 37 39 43 47 51 53 57
36 35 34 34 34 33 32 33 32 32 31 31 31 32 31 31 31 32 32 33 33 34 34 34 37 39 42 47 48 43 39 43 38 38 35 36 38 41 44 46 49 53 56 59
40 38 36 35 34 34 35 34 34 34 34 34 35 35 34 35 35 35 35 34 35 36 37 39 44 47 50 53 54 44 39 36 39 40 37 40 42 45 48 50 55 57 61 65
44 41 39 38 36 36 36 36 36 35 35 36 36 36 36 36 37 37 36 36 36 38 40 42 47 52 56 55 50 45 35 33 39 44 39 44 46 48 51 54 58 61 66 71
45 43 42 42 40 38 37 37 37 36 37 38 37 37 38 38 37 37 37 36 38 41 43 49 54 58 56 50 44 42 36 40 42 44 43 48 48 52 57 63 63 65 71 74
45 43 42 42 42 40 39 39 39 39 40 39 38 39 38 38 39 38 38 39 42 43 48 53 58 57 50 46 45 43 42 42 46 50 51 53 56 59 63 67 71 74 75 74
44 45 43 43 42 42 41 40 41 41 41 41 40 40 41 42 41 40 41 42 44 47 53 58 58 53 51 50 50 47 44 47 52 55 57 58 61 64 68 72 74 75 74 75
47 46 45 46 46 45 44 44 43 44 44 43 43 43 41 41 43 44 44 44 48 55 59 57 52 50 51 52 53 50 51 53 56 59 60 63 67 70 73 74 73 73 74 76
48 48 48 46 46 46 46 44 45 44 46 46 47 45 45 42 43 44 46 50 54 57 50 47 49 53 54 55 54 54 56 57 59 61 64 68 71 72 73 71 71 73 74 75
51 51 52 51 47 47 46 46 46 45 45 47 47 47 48 51 53 54 56 57 55 50 49 51 53 54 57 58 59 61 61 61 62 65 68 69 69 68 67 71 73 74 74 74
53 49 50 51 47 44 52 51 49 50 51 53 55 56 57 55 50 49 50 52 52 53 54 55 56 57 59 59 58 58 59 61 63 66 66 65 64 67 70 72 73 74 75 75
51 53 49 44 43 41 41 47 47 52 57 58 55 49 46 46 48 48 51 53 55 57 58 58 60 60 56 56 57 59 60 62 62 63 63 66 69 71 71 72 74 76 73 72
52 53 53 46 47 45 46 48 47 51 51 49 49 49 49 49 49 50 52 54 57 59 59 60 61 59 59 59 60 61 62 61 63 65 68 70 71 73 74 76 75 73 72 72
55 55 55 54 56 57 54 52 51 51 52 51 49 49 50 50 51 54 57 58 58 59 59 59 56 56 58 59 61 61 61 64 66 67 69 71 72 73 73 71 71 73 71 68
50 52 55 53 56 57 53 53 57 58 57 56 56 57 55 54 55 56 57 57 58 58 56 53 53 56 59 60 59 60 62 64 66 69 70 72 73 71 69 70 70 68 65 63
58 56 56 57 57 57 57 58 57 55 58 61 60 59 57 54 54 54 54 53 54 52 51 53 55 57 58 56 58 62 64 66 67 68 69 67 66 67 65 65 64 63 62 62
61 61 58 57 60 63 64 64 62 60 60 59 59 56 52 49 49 49 49 50 50 50 53 55 57 57 57 59 62 64 64 65 66 64 63 64 64 63 61 60 60 61 59 54
47 44 44 44 45 48 50 52 52 50 48 46 45 44 46 48 49 49 49 50 52 55 57 59 59 58 59 61 62 63 64 62 59 59 61 61 60 58 58 58 57 53 50 48

GFSNW_500_spd_015.txt.gz
Wind_Speed
39 44 45 44 43 41 39 35 32 29 26 24 20 19 16 14 13 9 7 5 6 6 6 6 7 6 4 1 1 3 4 6 8 11 14 16 18 22 24 24 27 29 31 27
35 42 45 45 43 41 39 37 33 30 28 24 21 20 18 16 13 11 9 6 6 7 8 8 7 6 4 3 2 2 5 7 11 15 17 21 24 25 26 29 30 28 33 28
33 38 42 45 45 43 40 37 35 33 28 25 23 22 20 17 15 14 10 9 8 9 9 9 8 7 5 3 2 6 10 14 16 18 24 31 33 31 32 34 33 35 29 33
30 36 39 42 44 43 41 39 36 32 29 28 25 23 20 19 17 16 14 12 11 11 12 11 9 8 7 6 8 12 14 17 19 21 27 32 34 32 33 34 34 35 28 26
29 31 38 39 41 41 41 39 36 34 30 29 26 24 21 21 19 17 17 17 16 16 15 14 12 12 11 11 13 16 19 21 23 23 28 36 34 36 36 33 32 31 30 27
29 29 32 37 39 41 41 39 37 36 32 29 27 24 23 23 21 20 21 20 19 18 17 16 16 16 15 15 17 20 24 25 28 28 34 38 42 36 35 32 33 29 29 30
29 29 29 32 37 38 38 38 37 35 32 29 28 27 27 26 25 24 23 22 21 20 19 19 20 19 19 19 21 24 28 31 33 36 40 43 47 38 33 31 27 29 32 35
31 29 29 30 33 36 37 37 36 35 32 30 30 29 28 27 27 27 25 24 23 23 22 22 22 22 21 23 24 28 32 34 37 40 44 47 39 35 33 30 27 30 34 37
31 30 30 31 32 33 35 36 35 34 33 32 32 30 29 29 29 29 27 25 25 26 25 24 25 25 25 27 28 31 34 36 39 43 48 48 43 38 33 33 33 35 37 40
33 32 32 33 32 33 33 34 34 34 34 33 34 33 31 30 31 29 28 28 28 28 27 27 28 28 29 32 33 34 37 38 39 46 48 46 42 38 36 37 40 42 43 48
33 34 33 32 32 33 34 33 34 35 33 33 34 34 33 32 31 31 30 31 30 30 31 31 31 32 33 35 36 37 38 39 41 46 47 48 43 41 40 39 41 47 49 53
34 34 34 34 35 35 35 35 34 34 35 34 34 34 33 33 33 32 34 33 33 34 34 35 36 36 37 38 38 38 37 39 42 49 46 42 45 44 46 46 48 51 56 60
37 35 35 34 36 36 37 37 37 36 36 37 37 36 35 35 35 36 36 36 37 38 39 40 40 41 39 40 41 41 37 41 46 50 42 43 41 45 47 48 52 55 58 61
36 37 36 35 35 37 38 38 37 38 39 40 39 39 39 39 39 39 40 40 41 41 42 42 43 42 43 42 43 44 37 43 50 53 48 48 44 47 51 54 57 58 60 63
39 37 38 38 36 36 37 38 38 39 40 41 40 40 40 41 41 41 41 41 42 42 42 43 43 45 44 46 48 44 40 44 53 56 51 48 50 53 54 56 59 61 63 66
41 40 40 39 40 38 37 39 39 39 40 40 42 41 41 41 41 42 43 43 42 43 43 44 45 45 45 51 49 43 43 50 55 53 51 51 53 55 57 58 60 63 66 68
41 39 41 40 41 42 42 41 38 38 39 40 41 41 41 39 40 40 42 42 42 43 45 47 45 45 49 52 48 46 51 52 52 51 52 54 56 56 59 62 64 66 67 70
40 40 40 42 42 43 45 44 43 43 43 43 46 46 42 39 40 43 44 44 45 46 46 47 46 48 49 53 49 52 51 51 51 52 53 55 58 60 63 65 65 67 69 71
40 40 39 41 43 44 45 45 46 45 46 47 49 46 44 44 43 44 45 46 47 49 49 48 48 51 51 48 49 50 49 50 52 54 58 59 61 63 64 64 65 67 68 68
46 47 47 46 43 44 47 48 48 47 47 48 47 45 46 46 47 46 46 47 48 50 50 51 54 54 53 49 50 50 50 53 56 59 61 62 62 63 63 64 65 66 68 69
41 41 45 41 41 46 51 51 50 46 44 44 42 44 47 46 46 47 49 50 52 52 54 56 57 54 47 49 51 52 55 58 60 62 61 62 62 61 63 64 66 68 70 71
46 44 44 44 46 47 48 50 49 46 44 41 39 39 44 48 50 54 54 49 52 53 53 53 54 49 50 53 54 57 59 61 62 63 63 61 61 63 64 65 67 69 70 70
46 42 45 50 53 54 59 58 54 50 47 46 41 45 49 49 48 49 47 51 52 53 54 55 55 54 58 59 60 62 63 64 64 63 61 60 61 63 65 66 67 68 67 67
50 47 52 59 57 60 62 57 52 52 49 50 51 53 54 52 52 53 54 55 56 57 57 56 60 62 62 63 63 65 63 61 61 60 60 61 62 64 66 67 67 65 63 64
51 52 55 57 61 62 61 60 58 57 57 56 56 56 55 54 55 55 57 60 63 63 62 61 62 63 63 64 62 59 60 61 60 59 61 62 63 64 64 64 62 62 62 62
53 56 54 54 54 53 55 60 56 56 59 55 53 56 60 63 60 58 60 62 63 61 60 61 61 60 57 54 54 56 58 58 59 60 62 62 63 63 61 60 59 60 60 57
54 52 55 53 50 50 50 51 52 55 55 54 53 53 52 53 54 54 53 53 54 56 56 54 50 49 51 54 57 57 57 58 60 61 61 61 61 60 57 56 57 57 56 53

GFSNW_500_spd_018.txt.gz
Wind_Speed
40 45 48 48 45 41 40 39 38 35 30 25 21 19 12 10 10 12 8 5 5 6 7 8 8 8 7 6 5 4 3 2 3 6 8 14 17 20 22 24 24 28 29 23
41 44 47 48 45 43 41 39 37 34 29 25 22 16 14 14 13 11 9 5 5 7 8 9 9 9 8 6 6 3 1 3 7 8 11 17 22 26 29 29 24 23 28 26
40 44 46 48 46 44 42 41 37 33 28 25 22 20 18 17 14 12 11 8 7 9 10 11 11 10 9 7 4 3 4 7 9 12 16 21 25 30 33 34 35 33 24 27
38 43 47 48 47 45 42 40 38 33 29 25 24 22 20 17 15 13 15 12 11 12 13 13 13 12 11 9 8 9 10 12 13 16 19 24 29 33 37 36 33 33 28 28
35 40 45 47 47 46 44 42 38 35 30 30 27 23 21 19 17 16 17 15 15 16 16 16 16 13 13 12 13 13 15 15 17 20 23 27 30 36 40 37 33 31 31 24
31 37 42 44 46 46 45 42 39 37 34 31 29 25 23 22 16 19 20 19 20 20 17 16 17 17 16 16 17 18 19 21 23 23 27 28 32 36 40 37 34 33 30 31
30 32 37 41 43 45 43 42 41 38 36 32 29 27 24 23 21 23 24 23 21 20 22 20 19 20 20 20 21 21 23 25 27 30 31 32 35 39 39 37 34 32 32 35
30 30 32 38 41 41 41 42 41 39 36 35 33 28 27 26 24 27 24 23 24 25 24 23 22 23 23 23 24 26 27 30 32 34 37 36 38 40 39 40 30 35 34 35
30 31 31 33 37 40 41 41 40 37 37 37 34 33 30 28 29 26 29 27 27 27 26 26 26 26 26 27 28 28 31 33 35 37 41 41 42 46 46 42 40 39 35 37
32 31 31 32 33 34 37 38 38 38 38 36 36 36 31 32 31 31 30 31 30 29 28 29 29 29 29 32 31 32 34 36 37 40 41 43 44 47 46 47 43 41 40 41
34 33 31 31 32 33 34 35 36 38 38 37 37 35 36 34 35 32 33 33 33 32 32 31 31 33 33 34 36 36 38 39 40 42 43 46 48 49 50 48 45 47 46 47
35 33 33 31 30 32 33 34 35 36 37 37 38 37 38 38 37 35 32 36 33 35 34 33 34 35 36 36 38 41 43 40 43 44 44 46 49 53 53 53 50 49 50 53
35 33 32 32 32 31 32 33 35 35 35 37 38 37 36 37 37 36 36 36 37 36 36 37 38 39 39 40 41 42 44 40 44 48 45 46 48 50 54 53 51 52 54 55
37 34 33 32 32 32 33 33 35 36 35 37 37 37 37 38 38 38 37 38 39 39 39 41 42 42 43 42 43 45 40 41 42 47 47 51 51 55 56 53 52 55 56 58
37 36 34 34 33 33 34 35 36 36 37 37 37 38 38 39 40 40 40 41 42 43 44 44 45 45 45 45 47 44 37 41 44 46 50 51 55 56 55 52 53 54 58 62
38 36 34 33 34 35 35 36 37 36 37 38 38 38 39 40 40 41 43 44 44 44 46 46 46 45 46 48 49 42 41 42 45 47 53 56 57 56 53 53 55 59 62 64
37 37 37 36 35 36 38 36 33 34 36 38 40 40 40 41 40 40 42 42 42 43 46 44 43 43 49 51 50 41 43 45 49 51 53 55 53 52 53 57 60 63 64 66
40 39 38 38 37 38 39 39 39 39 38 37 40 41 38 36 37 38 40 39 41 43 44 46 45 47 50 54 44 44 46 50 52 55 57 54 52 53 57 60 62 63 66 67
33 37 39 38 38 39 39 40 40 41 43 43 44 43 42 40 39 40 42 42 43 47 48 47 49 51 52 47 47 49 52 52 56 56 54 53 54 57 60 62 64 66 67 68
32 33 37 39 37 38 40 41 42 43 45 46 46 45 46 44 44 43 44 45 46 49 48 49 51 52 49 48 48 51 55 55 52 52 54 57 59 61 64 65 66 66 67 67
39 37 35 36 36 39 43 43 43 42 41 41 43 45 46 45 45 44 45 46 48 49 49 53 53 52 48 48 49 50 53 54 55 56 59 61 64 66 66 65 64 64 65 67
42 40 40 39 42 45 48 48 47 45 46 43 42 43 44 42 42 46 47 49 47 47 49 52 52 51 49 48 51 53 53 56 60 64 66 67 66 65 63 61 63 65 67 68
45 41 41 39 42 46 50 47 44 43 40 38 35 35 37 42 44 47 47 49 50 51 52 52 52 49 51 54 58 60 61 61 62 65 67 66 64 62 61 62 64 67 68 68
51 50 46 43 45 47 49 53 51 48 47 45 47 49 50 50 50 48 49 53 55 58 57 54 54 56 58 60 63 63 63 64 64 63 65 62 58 59 62 64 65 66 66 66
44 50 51 50 49 49 50 53 54 54 56 54 54 55 55 54 54 53 54 57 57 57 56 58 60 62 63 63 63 63 63 63 63 60 57 57 60 62 63 63 64 64 64 63
46 46 48 51 49 49 49 49 51 56 58 57 55 53 55 57 57 59 60 60 60 60 61 62 62 61 59 60 61 61 60 57 56 57 60 61 61 62 62 62 63 63 62 62
52 50 51 49 49 51 53 52 50 47 46 46 49 50 48 50 52 55 57 55 56 58 57 56 56 56 56 54 53 52 53 56 58 58 59 60 61 62 62 61 61 61 61 60

GFSNW_500_spd_021.txt.gz
Wind_Speed
37 43 48 51 50 48 44 41 40 38 36 31 26 22 17 10 9 7 8 5 6 6 9 8 8 9 9 7 6 5 5 4 4 2 2 7 10 14 17 21 22 23 24 14
40 45 50 52 49 46 44 41 41 40 36 31 27 22 12 11 10 8 7 6 5 7 8 8 10 9 9 9 8 8 5 3 1 4 4 6 12 18 23 27 29 23 26 20
41 46 51 52 50 46 44 43 42 40 35 32 27 20 15 13 11 9 7 8 8 8 10 10 11 11 11 11 10 7 4 5 7 8 9 13 18 21 25 30 33 32 27 30
42 46 50 52 50 48 45 44 41 38 34 30 25 20 18 13 11 11 9 12 11 11 11 11 12 12 12 12 10 8 7 8 11 13 15 18 21 23 26 29 32 34 33 33
42 46 50 51 51 49 45 43 42 39 36 30 27 24 20 15 14 12 11 14 15 12 14 12 12 13 12 13 12 11 11 12 15 16 17 20 22 24 27 28 32 33 35 34
43 45 48 51 51 49 47 44 43 41 35 32 30 23 21 21 16 16 15 18 18 12 11 13 14 18 18 18 16 15 16 17 19 19 21 24 26 27 29 32 34 38 38 36
41 44 46 49 51 50 47 43 40 38 36 34 30 26 26 24 18 20 16 17 16 15 19 21 19 20 21 20 19 19 20 21 23 23 25 27 31 32 32 34 37 38 40 40
37 38 42 47 49 49 47 47 43 40 39 37 34 31 30 27 21 21 16 18 22 23 21 22 22 22 23 22 24 22 23 26 27 28 29 31 34 36 35 38 38 39 39 42
33 36 38 39 44 46 48 47 44 43 41 39 37 35 33 29 25 24 21 22 26 25 24 25 25 26 27 27 26 26 27 29 30 32 34 37 40 41 42 42 40 43 41 43
33 33 34 37 38 42 44 45 44 43 41 40 39 38 35 32 30 29 27 27 27 27 28 28 29 29 31 31 29 30 32 33 34 35 38 40 41 45 45 43 44 46 46 46
33 31 31 32 33 38 40 42 42 41 40 40 41 39 38 36 35 31 30 31 30 31 32 32 31 33 33 34 33 32 35 36 36 39 41 42 44 47 46 44 46 47 49 51
34 33 30 30 31 33 35 38 41 42 41 41 42 41 41 38 38 35 34 35 33 36 34 33 35 36 35 34 36 36 38 39 40 41 42 42 48 50 49 48 49 49 53 53
35 32 33 29 30 31 33 35 36 38 39 41 42 40 40 41 41 38 37 37 37 36 34 36 38 38 37 37 37 40 41 42 43 44 45 46 51 51 50 50 51 53 55 53
36 35 33 33 32 29 30 32 34 34 35 37 38 38 39 40 40 39 38 38 38 38 38 39 39 39 40 40 41 43 39 43 42 45 45 49 51 51 53 51 52 55 54 51
39 37 34 34 33 33 31 30 31 33 34 35 33 35 36 37 38 38 37 37 39 39 38 38 39 41 41 43 44 43 37 40 40 45 47 46 49 52 50 52 56 57 53 54
40 39 37 35 33 33 33 34 33 30 31 33 32 32 33 36 37 37 37 37 37 37 39 41 43 41 43 46 46 41 37 37 41 46 46 49 52 52 53 56 57 54 54 56
40 39 37 37 35 34 34 33 31 31 31 32 34 34 35 36 36 35 36 36 37 39 41 42 41 40 43 45 45 38 39 43 47 46 48 50 51 52 55 57 54 54 58 61
39 39 37 36 35 33 33 32 32 32 33 34 36 35 33 32 33 35 35 35 36 38 39 41 39 40 43 47 40 41 43 46 48 48 51 52 53 55 55 55 55 58 63 66
34 33 32 35 36 35 34 33 32 33 34 35 36 36 35 33 33 34 35 36 37 40 40 41 44 46 47 43 44 45 46 46 47 51 53 53 52 54 56 59 62 66 69 71
34 34 35 36 36 35 36 36 35 34 36 39 38 37 38 37 37 38 39 40 41 44 44 46 48 49 46 43 46 46 48 51 54 53 52 51 52 55 58 61 64 67 70 71
33 31 29 26 28 33 34 36 35 36 38 40 37 35 35 37 39 39 40 43 45 47 47 48 49 47 41 40 42 45 48 48 47 49 53 56 59 62 64 65 68 68 69 67
37 34 31 31 31 32 35 35 35 35 34 35 33 33 35 37 38 42 44 44 45 47 45 46 46 44 43 44 47 50 50 49 51 54 56 60 62 63 65 67 67 67 65 64
40 38 37 36 36 37 38 37 36 35 35 35 36 36 36 35 36 38 38 41 43 44 48 50 49 48 48 51 54 54 54 53 56 59 63 64 65 64 66 66 65 62 63 65
43 43 44 42 42 43 42 41 39 40 39 40 40 39 41 40 41 44 46 47 47 50 52 52 52 52 54 56 58 58 59 60 62 63 64 63 63 65 62 59 60 62 64 66
44 42 42 45 45 45 45 43 43 43 44 44 45 46 47 48 48 48 50 53 54 53 54 56 59 60 59 59 60 60 60 61 62 61 62 63 62 58 58 60 62 65 67 68
46 47 46 44 44 46 48 47 45 45 46 47 48 50 52 53 55 57 54 53 53 54 56 57 58 60 59 58 58 59 59 58 60 61 60 58 58 59 60 63 66 66 65 64
46 44 44 47 48 46 45 46 50 52 49 47 45 44 44 46 47 47 48 48 51 52 53 51 48 48 50 52 54 56 56 54 53 55 56 58 61 63 62 62 61 61 60 61

GFSNW_500_spd_024.txt.gz
Wind_Speed
38 36 39 41 46 51 49 47 45 43 40 37 32 28 24 17 14 9 5 3 5 8 10 8 9 12 13 13 13 11 9 9 10 8 6 3 3 6 9 12 14 17 18 20
37 39 40 45 50 52 49 47 45 43 40 37 32 28 24 18 12 7 4 4 5 8 8 10 13 14 15 15 14 13 12 11 7 5 6 7 8 10 14 16 18 22 22 24
38 40 42 47 51 53 50 48 46 44 41 36 33 29 21 16 12 8 6 8 7 8 10 13 15 16 15 14 14 13 11 9 7 6 7 10 13 16 18 19 21 20 22 22
39 41 44 49 54 54 51 48 46 42 39 36 33 27 20 17 12 9 8 9 9 10 11 13 14 15 14 15 15 13 11 10 10 9 10 12 14 17 21 23 25 26 25 28
39 43 48 52 55 54 50 47 46 43 41 38 32 25 21 16 14 11 10 10 10 9 8 10 13 14 14 15 16 14 14 13 13 14 16 17 19 20 23 25 26 28 30 32
40 43 49 53 55 54 52 48 45 44 41 37 33 28 24 19 17 14 11 9 11 12 10 13 17 17 20 20 20 19 18 18 19 18 21 22 22 24 27 29 30 30 33 34
40 43 49 54 55 53 52 47 45 42 40 36 34 29 25 23 19 17 14 12 12 13 19 18 18 18 20 22 21 22 21 22 22 23 25 26 27 27 30 33 30 32 35 36
40 43 48 53 55 53 52 49 44 42 40 39 37 33 33 27 21 19 17 15 15 18 22 20 20 20 21 22 24 26 26 27 27 27 28 29 30 32 34 34 33 36 38 40
39 41 45 50 52 52 51 49 46 44 43 42 39 37 34 29 24 23 22 20 18 20 23 25 24 25 24 25 26 26 28 29 30 30 33 33 33 35 37 37 36 38 39 41
38 37 42 46 48 50 51 49 46 44 42 41 40 38 36 32 28 27 26 25 23 23 25 26 28 29 29 29 28 27 30 33 34 33 36 36 37 39 41 39 40 43 45 45
37 39 38 41 45 49 49 47 45 44 43 42 41 39 37 35 32 31 30 30 28 29 28 30 31 33 33 32 32 31 34 36 34 36 36 39 40 42 42 42 44 46 47 46
36 36 38 38 42 45 45 45 45 44 43 43 42 42 40 38 37 36 37 36 34 35 33 33 34 35 36 36 36 34 35 37 37 37 38 40 43 44 44 45 48 48 48 48
34 33 34 35 36 38 40 42 43 43 43 44 44 43 42 42 41 40 41 40 41 39 38 37 36 36 35 37 37 38 36 39 39 39 38 41 43 43 46 52 52 50 50 52
35 33 31 31 31 33 34 35 37 40 41 42 43 43 44 43 43 43 43 43 42 41 40 39 38 39 39 38 39 41 37 41 40 42 42 45 44 48 52 53 53 52 53 54
34 33 33 31 29 28 29 30 31 33 35 36 36 39 40 41 42 42 42 43 41 38 37 37 37 38 39 40 41 38 34 36 40 41 42 44 47 50 52 52 51 53 54 54
38 35 33 32 31 31 31 28 27 27 29 31 32 33 35 36 37 36 35 34 35 36 36 37 37 35 37 41 39 33 29 34 38 39 40 42 45 49 50 51 52 53 54 55
40 38 36 34 33 32 32 32 30 31 30 30 31 31 32 33 32 32 32 32 33 34 36 36 36 35 38 40 39 30 36 37 38 40 42 46 49 50 50 51 52 53 54 54
40 40 39 38 36 34 33 31 31 32 33 34 35 33 29 29 30 32 32 32 34 35 35 36 34 37 39 42 33 37 39 41 43 45 46 48 50 52 53 54 54 54 56 59
40 40 39 38 37 35 34 34 33 33 34 34 33 32 29 28 29 30 31 32 34 36 37 37 40 41 42 39 41 43 44 46 46 45 45 46 47 48 48 49 53 57 61 63
40 39 38 37 36 34 34 34 34 34 35 35 33 31 32 31 30 31 33 34 37 40 41 43 45 46 43 42 43 43 44 45 46 46 45 46 50 50 51 55 58 61 64 66
34 34 35 33 34 34 33 35 35 35 36 35 34 32 31 31 32 30 31 34 38 41 42 43 45 45 42 42 40 41 42 44 46 48 50 51 52 53 55 60 62 64 66 68
36 34 31 32 33 34 36 36 36 35 35 34 30 29 30 30 31 34 36 35 37 40 40 41 42 38 38 38 41 45 47 47 47 50 52 54 56 58 60 62 64 65 64 65
33 35 36 35 34 36 35 34 33 30 28 27 27 29 32 34 35 37 39 41 42 40 41 42 42 43 43 45 47 49 50 51 53 55 57 58 60 62 63 64 62 64 67 65
36 35 37 39 41 41 39 38 37 35 35 36 37 38 38 37 37 39 41 43 44 47 48 48 49 50 53 55 56 55 55 57 57 57 59 61 61 60 60 62 65 62 61 62
43 42 42 44 43 43 42 42 44 44 44 44 44 45 45 44 44 44 45 46 48 50 52 53 54 56 56 55 55 56 57 57 58 58 57 56 57 60 62 60 59 60 65 69
40 43 42 43 42 42 43 44 44 46 47 48 49 50 51 50 49 48 46 46 47 48 48 49 49 51 52 53 55 56 56 54 52 53 56 60 61 58 56 60 64 64 64 64
41 40 42 43 44 44 44 45 45 46 47 49 51 51 51 51 49 47 46 44 42 44 48 51 50 49 47 45 45 46 48 53 56 56 56 55 57 61 63 60 61 62 60 59

GFSNW_500_spd_027.txt.gz
Wind_Speed
43 42 42 39 39 39 47 50 46 43 42 39 36 34 27 24 19 14 10 8 9 12 13 14 15 17 17 17 16 17 15 13 14 13 11 7 5 5 6 8 11 14 16 17
43 42 42 40 43 44 51 51 47 44 42 39 37 32 27 22 17 13 7 6 8 12 12 14 16 17 18 19 18 17 16 15 15 12 12 10 10 10 12 13 14 14 16 18
43 43 42 41 44 47 55 53 50 46 42 39 36 33 27 21 17 12 8 6 9 11 13 16 17 17 18 18 17 16 17 16 14 12 11 11 12 13 14 15 17 17 20 21
42 42 42 42 45 51 57 54 50 44 43 40 37 33 27 21 17 12 10 7 10 9 11 13 15 16 17 17 17 18 17 16 15 13 13 15 15 17 18 20 21 22 23 23
42 41 40 42 47 54 56 53 50 46 42 40 38 33 27 22 18 12 10 8 10 10 9 11 15 17 18 19 18 20 19 18 17 16 17 18 19 21 25 25 26 27 29 28
41 40 39 43 51 57 57 53 49 46 44 42 39 33 27 24 18 14 12 10 8 12 12 13 16 18 20 21 21 23 22 21 21 21 22 24 22 24 28 28 27 30 32 33
40 38 39 44 52 57 56 53 49 47 44 42 38 34 30 26 20 17 14 11 9 13 16 17 16 17 19 21 22 24 25 25 27 26 27 30 25 27 30 32 31 33 35 35
36 36 39 45 54 57 56 52 48 45 43 41 41 36 31 28 23 19 17 15 13 14 19 20 19 18 20 21 24 26 28 30 31 33 32 35 30 30 34 36 35 35 37 37
31 35 39 46 54 55 56 53 48 46 44 43 40 37 35 31 26 22 21 20 17 16 17 21 22 23 22 23 24 26 30 33 35 36 38 38 34 34 37 39 37 38 39 39
30 34 39 45 51 52 55 52 50 46 45 43 41 39 37 33 29 25 24 23 22 21 20 20 22 25 27 27 26 26 31 33 36 38 40 40 36 38 39 40 42 41 41 43
28 33 37 42 46 50 52 51 50 48 45 43 41 40 38 35 34 31 29 28 27 28 27 26 26 28 28 29 31 31 33 36 35 37 39 41 39 40 41 42 43 44 43 44
30 30 35 40 44 48 50 49 49 48 46 42 41 41 40 39 37 35 35 33 31 32 32 33 33 35 35 35 36 34 37 37 38 38 38 40 42 43 43 45 45 44 45 49
31 33 31 35 40 43 45 46 47 47 45 44 43 41 40 40 39 38 37 37 36 38 38 38 39 40 40 40 39 38 38 38 39 39 37 39 43 45 45 46 47 46 48 51
31 33 34 34 35 37 40 42 43 45 45 44 43 42 42 41 41 41 41 41 42 43 43 43 43 43 44 42 43 43 42 38 38 42 40 43 43 44 45 46 46 47 49 50
32 31 32 33 33 33 35 37 39 41 43 43 43 43 43 43 43 44 44 43 43 43 43 42 42 43 43 44 45 39 36 36 40 42 42 44 44 43 44 45 48 49 50 52
34 31 30 30 30 30 31 32 34 35 38 39 39 41 41 41 42 42 40 39 38 38 38 39 39 36 38 42 41 31 31 37 40 41 41 42 42 44 46 48 49 49 51 53
33 32 30 29 28 27 27 26 27 29 30 32 33 34 35 33 32 32 32 33 33 35 36 35 34 33 36 38 37 28 35 36 38 38 40 42 43 46 47 48 48 49 50 52
33 32 31 30 29 29 28 27 28 29 30 30 31 29 26 27 28 29 30 31 32 33 34 34 34 36 38 39 30 35 37 39 40 42 44 46 47 48 48 49 49 50 52 53
39 37 36 34 33 32 31 30 30 31 32 32 32 31 29 30 29 30 30 32 33 35 36 36 37 38 38 36 37 39 42 44 46 47 46 46 46 47 49 51 54 56 57 57
39 38 39 37 37 36 36 36 35 34 34 33 31 29 30 29 28 29 32 33 35 38 38 39 40 40 38 39 40 42 43 46 47 47 45 44 45 46 47 49 54 55 56 59
35 37 40 38 38 37 37 38 38 36 36 35 33 31 30 29 30 31 34 37 38 40 41 40 40 39 38 38 39 40 40 39 39 40 43 46 48 49 52 54 55 57 61 63
43 43 37 35 36 37 39 38 37 35 35 32 30 30 31 33 34 36 38 38 39 40 39 40 41 41 41 41 41 42 42 43 44 46 49 52 50 53 55 56 58 59 61 62
31 31 35 37 39 41 43 41 39 32 32 32 29 29 31 33 35 36 36 38 40 40 43 45 46 45 46 47 47 48 50 52 54 54 55 54 55 57 58 58 59 59 59 60
28 32 35 36 38 41 40 37 33 33 34 33 32 33 34 34 36 38 41 43 44 46 48 49 49 50 52 53 55 56 57 58 57 55 55 56 56 57 58 58 58 59 61 64
30 30 32 35 36 38 39 38 37 36 37 37 38 39 40 41 42 43 45 47 50 52 53 54 54 56 57 57 55 55 55 54 55 56 57 57 57 57 57 58 60 62 61 63
36 38 38 38 38 38 39 40 42 43 44 44 45 45 46 47 48 50 51 51 52 51 50 51 53 54 52 50 51 55 56 57 56 55 54 54 54 56 59 61 61 62 63 63
41 41 44 44 47 47 47 48 47 46 46 46 47 47 46 49 50 49 50 51 51 50 49 45 43 46 48 49 50 48 47 49 51 53 56 59 61 61 60 62 60 62 62 61

GFSNW_500_spd_030.txt.gz
Wind_Speed
54 50 48 48 43 39 40 44 47 47 43 41 36 32 29 27 26 22 20 16 14 14 16 17 17 17 17 17 16 17 18 16 16 15 15 14 12 9 7 8 12 13 14 13
50 48 47 47 43 40 43 49 50 47 43 40 36 32 29 25 23 20 15 11 11 12 12 12 15 17 18 17 17 18 18 17 18 17 16 14 11 10 12 14 15 15 17 19
47 46 47 45 43 44 47 53 52 49 44 40 37 33 29 25 23 16 10 7 8 10 11 14 17 17 18 18 18 18 18 17 17 16 16 16 14 14 15 17 17 19 21 22
45 46 45 44 44 46 50 57 53 47 45 42 38 36 31 25 20 13 10 8 8 12 13 15 16 16 17 18 18 19 19 19 19 18 16 17 17 17 18 19 22 23 25 27
44 45 43 44 44 48 53 57 52 48 44 41 37 36 31 25 19 15 11 8 7 10 11 14 16 17 18 18 19 20 20 20 21 21 20 21 21 20 21 24 26 27 30 29
42 43 42 43 44 48 55 57 53 48 45 42 39 36 29 22 20 16 12 9 8 11 12 13 14 15 17 19 21 21 21 22 23 24 24 26 25 20 27 29 29 32 33 35
41 40 40 41 44 47 54 58 54 50 47 43 38 35 30 27 24 20 16 11 9 10 14 14 14 14 15 17 19 21 22 25 28 28 29 33 26 27 31 35 36 36 37 39
39 38 39 40 44 48 55 57 54 50 47 43 40 37 32 29 26 23 18 14 12 11 12 16 16 15 14 16 19 22 25 28 31 33 33 35 34 33 36 39 40 39 41 44
39 36 37 40 44 48 54 56 54 50 47 43 40 37 33 32 27 24 21 18 16 15 14 13 16 18 19 21 19 20 25 29 33 35 39 41 38 37 40 43 44 40 44 44
35 34 37 39 43 49 54 54 53 50 47 44 40 38 34 32 30 28 26 23 20 18 17 16 16 16 18 21 22 25 29 32 34 37 41 43 40 40 41 43 44 46 46 47
31 33 34 37 42 46 48 51 52 50 47 43 40 38 36 35 34 32 30 28 26 24 22 22 22 22 22 22 23 25 29 32 34 37 41 43 41 42 43 46 47 47 49 49
29 29 33 35 39 42 39 42 54 49 47 43 40 38 37 37 36 36 35 32 29 29 29 28 29 29 30 30 32 32 35 35 38 38 38 40 43 45 46 46 48 48 50 50
27 26 31 33 37 42 41 41 49 50 46 43 42 40 38 38 37 36 36 35 34 34 34 34 34 35 35 37 38 40 40 41 41 41 38 42 46 48 47 48 49 50 50 50
24 24 28 32 37 40 39 40 46 46 46 44 42 39 38 38 37 37 37 36 36 37 38 39 39 41 41 42 44 45 43 38 38 42 40 44 44 44 46 47 48 49 48 48
27 23 22 25 30 36 38 40 40 41 43 43 41 41 40 39 38 38 39 40 40 41 41 42 43 45 45 46 46 41 34 33 39 42 41 43 42 42 44 45 46 46 47 50
30 30 29 27 29 31 31 34 37 37 38 38 39 38 38 39 40 40 41 42 42 43 44 44 45 41 41 44 41 27 32 38 40 40 41 42 43 43 45 46 47 49 51 53
29 27 27 27 27 27 29 29 28 31 33 34 36 37 37 38 39 38 38 39 39 40 39 38 36 34 37 40 37 31 36 38 38 40 41 41 43 45 46 48 50 50 51 52
28 27 25 25 25 25 25 26 28 29 30 32 32 32 30 30 30 32 32 33 33 34 33 32 32 35 36 37 33 35 36 37 40 42 44 46 48 49 49 49 48 47 49 51
27 26 27 26 25 24 25 24 25 26 28 28 26 26 26 27 27 28 30 31 33 34 35 35 37 37 38 37 36 37 40 41 43 45 46 47 48 48 47 47 48 51 53 54
28 27 27 26 26 26 26 27 28 29 29 29 28 27 27 26 26 28 30 32 34 36 35 36 37 37 38 39 39 39 40 42 43 44 46 46 45 44 46 48 50 54 56 58
33 32 31 30 30 31 32 33 33 33 33 32 30 28 28 27 29 30 34 36 37 38 39 39 39 38 39 40 40 41 41 43 44 45 46 47 48 50 53 56 57 57 56 57
37 36 36 36 38 38 40 40 38 37 36 34 30 29 30 32 33 35 37 37 39 41 41 43 43 41 39 40 42 44 45 46 47 49 50 53 55 56 57 55 54 54 55 57
35 35 34 35 38 41 43 42 39 35 33 32 31 32 33 34 35 37 38 40 42 40 41 42 41 40 42 44 46 49 51 53 54 55 56 56 56 55 55 57 57 57 55 58
28 35 38 39 44 48 45 38 35 35 33 33 32 32 33 32 33 33 34 36 38 41 42 43 44 46 49 51 53 56 57 59 59 60 59 56 55 55 56 55 56 58 60 62
25 29 34 35 32 33 34 33 30 29 30 32 33 33 33 33 34 37 40 42 45 47 48 49 52 54 55 56 58 60 61 61 60 56 54 55 57 57 57 57 57 58 58 59
29 29 29 28 27 28 29 30 31 31 32 33 35 37 39 41 43 45 47 48 50 50 51 53 55 55 56 58 58 56 54 54 55 55 55 55 55 54 54 55 58 60 63 64
33 33 32 33 34 34 34 35 37 38 39 39 41 43 43 46 47 47 47 49 50 51 53 53 53 53 53 52 51 51 51 50 48 49 51 54 54 57 58 58 58 59 60 62

GFSNW_500_spd_033.txt.gz
Wind_Speed
80 70 62 57 54 54 49 47 43 40 40 43 43 40 36 31 27 25 23 21 18 18 18 17 18 18 18 19 19 18 18 18 17 15 17 16 14 12 11 10 10 11 11 9
75 67 58 56 54 52 52 48 45 42 46 47 45 40 35 30 26 25 21 19 17 17 18 19 20 20 20 19 18 17 18 17 16 16 15 14 15 14 13 14 14 13 14 17
65 61 58 55 52 54 52 48 48 48 52 49 44 39 34 29 25 23 19 17 16 16 16 17 17 19 19 18 17 16 18 16 16 16 17 19 18 18 17 17 16 18 16 21
64 57 55 51 52 54 51 52 51 52 55 50 44 39 33 28 26 24 19 14 10 12 12 13 14 16 17 17 17 17 18 17 18 18 20 21 20 20 18 18 20 22 22 25
56 53 53 50 53 52 52 51 54 55 52 48 44 39 34 30 27 20 15 9 7 8 12 12 14 15 14 15 17 17 18 18 20 21 22 22 21 20 19 21 24 27 30 27
52 54 50 49 51 50 51 48 55 56 53 49 44 38 34 30 24 20 14 9 7 7 12 12 13 13 13 13 15 17 18 19 21 22 24 26 26 19 24 28 30 32 34 34
53 50 46 47 48 48 47 49 55 56 54 49 42 39 37 30 25 21 16 10 8 8 10 11 11 11 11 13 14 16 17 20 23 24 26 30 24 25 29 34 35 38 39 41
49 46 45 44 45 46 45 47 55 55 53 49 43 39 35 30 26 22 16 12 10 9 9 11 12 11 10 11 13 16 18 21 23 26 28 30 31 32 34 39 40 42 44 47
44 41 41 41 43 44 44 48 54 54 51 48 43 39 35 31 28 24 19 16 13 12 10 8 7 11 13 14 14 15 18 21 24 26 30 33 33 34 37 41 43 43 45 47
41 38 38 40 43 40 44 47 52 52 50 48 44 40 35 31 29 26 22 20 18 15 12 11 10 10 10 11 13 17 21 24 25 27 30 32 33 35 37 40 44 46 46 47
38 36 36 40 37 38 42 44 47 50 49 46 43 40 36 32 29 27 25 24 22 20 18 17 16 15 16 16 16 18 21 25 27 29 32 36 37 38 41 43 44 46 46 45
39 35 36 36 35 36 38 42 45 50 48 44 42 40 37 33 32 30 28 28 26 24 23 23 23 23 23 23 25 26 28 30 32 32 33 37 41 43 45 44 44 45 46 47
35 34 34 35 32 34 36 39 42 44 44 46 43 40 38 35 33 31 31 29 27 28 30 30 30 30 29 30 32 33 35 36 36 38 36 41 44 45 44 45 45 45 46 47
31 31 33 32 31 32 34 43 36 41 42 40 43 41 39 37 34 33 32 32 32 33 33 33 33 34 35 36 38 39 37 37 40 42 41 43 41 41 42 43 44 44 45 46
29 28 30 32 34 38 27 35 38 39 42 42 41 40 39 37 35 34 33 33 33 33 33 35 36 37 39 40 41 37 35 39 41 41 39 39 38 39 40 41 43 44 45 47
28 27 28 31 37 43 36 25 37 35 37 38 38 39 36 36 35 34 34 34 35 35 36 38 39 39 42 44 43 32 33 37 38 39 39 40 40 41 42 43 45 46 48 50
24 22 23 26 30 37 45 34 26 27 29 32 35 35 36 36 36 36 36 37 37 39 40 40 40 40 42 42 40 32 32 35 37 39 40 40 42 43 45 46 48 49 49 49
31 28 26 27 28 28 32 33 33 33 33 32 32 33 31 32 32 33 35 36 38 38 38 38 36 38 37 38 32 33 35 36 38 40 42 44 45 45 45 45 46 47 47 48
24 28 25 24 25 25 24 25 26 27 29 29 28 27 27 30 29 30 31 32 33 35 35 34 35 36 38 35 35 35 37 38 40 42 43 43 43 45 47 48 49 51 53 54
24 25 27 27 25 23 24 24 25 25 26 25 23 22 22 23 24 26 28 30 32 34 33 34 35 36 35 36 37 38 39 41 42 42 42 44 47 47 48 50 51 53 56 58
21 20 19 20 21 21 21 23 23 23 24 23 22 22 22 23 24 26 30 31 31 34 34 35 36 37 37 38 38 40 40 40 40 41 43 46 48 50 51 53 55 57 58 58
21 20 20 20 22 23 28 28 27 26 25 23 23 24 26 27 29 31 33 34 36 37 37 38 38 38 37 36 36 37 39 41 44 46 49 51 53 55 56 57 58 57 57 56
31 27 27 28 29 32 34 30 29 28 29 30 29 29 29 30 32 34 34 35 36 37 39 41 37 32 33 37 40 43 46 49 51 53 55 58 59 60 60 58 58 54 51 49
34 33 33 36 37 37 33 31 30 30 29 29 28 28 29 29 30 32 32 35 38 41 38 36 37 39 43 45 48 50 52 55 58 59 60 60 59 58 56 55 53 53 54 55
31 31 35 37 35 35 33 32 30 31 33 35 34 32 30 29 31 31 32 34 37 38 39 42 45 47 49 52 55 57 59 60 61 61 59 58 56 54 52 51 50 51 53 54
25 27 27 26 27 27 27 27 26 26 26 27 29 29 30 31 33 35 36 38 40 42 45 47 49 51 53 55 56 57 57 57 55 55 55 53 51 52 54 52 51 50 51 53
26 26 26 27 25 25 25 25 26 26 26 27 30 31 33 35 36 38 39 42 44 45 47 49 50 49 49 48 47 48 48 50 52 53 54 53 50 50 51 49 49 52 57 61

GFSNW_500_spd_036.txt.gz
Wind_Speed
72 71 71 73 79 77 72 64 58 52 47 42 36 34 38 35 33 31 27 24 23 20 17 17 17 16 17 18 19 21 20 21 21 21 20 21 19 16 15 15 14 13 12 10
77 79 77 77 82 78 67 65 62 56 50 45 38 39 42 39 35 32 29 26 22 20 19 19 17 18 19 20 22 22 22 23 22 21 18 15 15 16 17 16 16 15 15 14
88 92 81 85 83 71 66 62 60 54 47 43 39 44 44 41 36 32 28 25 21 19 19 20 21 22 23 23 23 23 23 22 19 18 18 17 17 19 19 19 18 19 17 20
86 77 80 78 72 69 66 63 57 53 49 47 45 48 44 41 35 31 27 23 20 19 19 21 21 21 23 23 22 21 20 18 18 17 18 18 19 22 22 21 21 22 20 23
80 82 74 70 71 67 64 61 56 54 45 46 52 53 48 40 34 30 24 20 17 16 16 17 17 17 17 17 17 18 17 17 18 18 18 19 21 22 22 23 23 25 28 27
78 75 74 69 66 63 62 60 54 50 46 52 55 53 46 39 34 31 26 20 15 13 14 15 15 15 14 14 15 17 17 17 19 18 20 23 23 21 24 26 27 30 33 33
79 73 64 66 61 60 58 58 50 49 51 55 56 51 44 38 36 30 24 19 14 12 12 15 14 13 13 13 14 14 13 15 18 17 22 25 20 23 26 30 32 36 38 41
66 66 65 59 56 57 55 49 51 52 53 57 55 50 44 40 37 30 24 20 14 10 8 9 13 12 11 12 13 13 14 16 19 21 21 24 25 26 28 33 35 39 42 45
67 62 58 56 56 54 52 42 49 51 54 57 54 49 45 42 34 30 24 20 15 10 8 6 6 10 11 12 10 12 14 16 18 20 23 24 24 26 29 33 36 38 40 42
57 55 52 51 51 50 48 42 49 51 55 56 54 50 46 41 34 30 26 22 17 14 9 7 7 6 7 9 11 14 16 18 19 21 23 24 26 28 30 33 38 40 42 43
52 50 49 48 46 44 46 43 46 52 55 55 52 50 44 40 35 30 26 24 19 17 15 13 10 9 9 9 10 13 15 18 20 23 26 30 31 35 37 39 41 42 44 45
46 45 44 42 42 45 46 41 44 50 51 52 50 46 43 40 36 33 30 27 24 21 19 16 16 16 15 16 18 20 22 24 25 27 30 35 39 41 42 43 43 43 43 44
41 40 39 40 40 46 40 38 40 44 44 47 48 46 42 38 36 33 31 28 26 24 22 23 22 23 23 24 26 26 28 29 31 34 36 40 42 43 43 43 42 42 42 43
40 38 39 36 41 40 35 37 39 40 39 44 45 43 41 39 35 33 31 29 28 28 27 27 27 27 28 29 31 31 33 35 37 37 39 41 41 41 42 42 43 43 43 43
37 38 36 34 37 30 32 37 36 34 39 40 42 42 40 37 35 33 32 31 31 30 30 30 30 31 32 33 35 35 35 38 40 40 39 40 39 39 39 40 40 42 43 44
33 35 33 35 30 33 34 35 31 36 36 36 41 42 40 38 36 35 34 33 33 32 32 33 32 32 36 38 38 38 36 38 40 39 38 38 38 40 40 41 42 43 45 45
32 32 31 31 31 34 36 40 30 32 39 36 37 37 37 38 38 37 35 34 34 34 35 36 36 37 39 41 42 37 34 35 36 37 38 40 41 42 42 44 45 44 44 45
31 31 33 35 35 30 32 39 40 38 34 34 36 38 37 37 32 31 32 30 32 37 37 37 37 38 40 41 34 32 33 35 36 38 40 41 42 43 45 45 45 45 47 48
29 32 36 38 38 33 30 33 27 28 30 29 27 27 29 34 34 34 34 35 35 37 37 37 37 38 36 33 33 33 35 36 38 40 42 43 44 45 45 45 46 47 49 51
29 29 25 31 34 33 27 24 26 26 25 25 25 26 27 28 29 30 32 33 34 36 34 34 35 35 33 33 34 35 37 39 41 42 43 44 45 44 44 46 48 51 53 55
26 29 30 29 30 30 30 30 30 29 28 26 24 24 23 25 26 27 30 31 32 35 34 34 33 33 33 34 35 37 39 41 42 42 42 41 43 46 49 50 53 55 57 60
17 18 21 24 25 26 25 25 25 23 22 19 19 21 22 23 25 28 29 30 33 35 33 34 34 32 33 34 37 38 38 37 39 41 44 46 49 50 52 56 59 60 59 56
17 17 17 18 21 23 21 18 16 17 17 19 20 22 24 25 28 29 31 32 33 33 35 35 32 32 36 38 38 38 40 42 44 46 49 52 54 57 57 57 56 55 54 52
23 24 22 22 24 22 21 21 21 23 24 25 26 28 28 28 30 32 32 33 34 35 35 33 34 37 38 39 40 43 45 47 49 52 54 54 54 53 53 54 54 54 53 55
32 31 31 30 28 27 25 25 26 26 27 28 29 30 31 31 32 32 33 35 38 37 35 37 38 40 42 44 46 48 51 52 52 51 49 49 49 51 53 53 55 52 50 50
35 35 36 36 33 29 29 30 32 33 35 32 27 26 26 26 29 30 31 33 34 35 38 40 42 44 47 49 50 50 48 45 44 45 47 50 52 53 55 54 52 52 52 53
26 27 27 26 26 26 26 26 25 24 25 25 25 25 25 27 29 29 32 35 38 41 43 44 46 47 48 46 43 40 41 43 45 48 51 53 54 53 52 52 53 53 54 56

GFSNW_500_spd_039.txt.gz
Wind_Speed
91 85 79 73 69 66 62 60 62 61 60 54 45 40 29 31 29 28 27 25 23 21 20 18 18 18 16 19 18 17 20 19 22 17 23 21 23 21 21 20 18 17 17 16
94 88 81 75 73 70 65 64 68 64 65 58 50 41 34 36 33 32 29 26 25 25 23 21 20 20 20 18 19 22 20 22 23 24 21 21 21 21 20 21 21 19 20 14
93 88 81 78 79 73 73 75 66 67 63 61 54 43 41 38 37 36 33 30 29 25 23 21 20 20 18 19 20 21 22 23 24 24 17 20 19 20 21 22 22 19 19 19
85 86 81 75 79 80 80 73 75 67 66 66 59 44 41 40 42 38 37 33 28 24 22 21 20 20 19 22 23 24 25 25 26 24 25 22 21 21 21 22 20 24 16 25
93 85 76 80 81 84 81 67 78 75 64 66 55 51 47 44 42 39 38 31 28 25 23 21 22 23 23 24 25 26 24 25 23 23 23 23 23 21 21 22 22 24 25 30
101 101 90 87 82 81 81 76 71 69 64 62 55 51 48 47 46 40 38 30 28 25 24 21 22 21 21 20 19 20 22 23 23 23 21 23 20 17 20 22 23 27 31 30
100 91 91 90 80 80 78 72 69 69 62 59 56 51 51 48 43 41 36 32 29 22 22 21 21 20 19 19 19 20 20 21 22 20 20 22 17 19 21 24 26 31 35 35
89 80 77 91 79 74 74 73 65 65 59 55 56 52 53 44 46 45 38 32 26 23 20 17 18 18 17 16 17 18 19 19 19 20 20 20 19 20 23 26 29 36 35 38
77 84 82 78 78 71 65 66 63 63 61 54 55 57 55 55 48 44 40 35 28 21 16 14 13 16 16 16 15 16 17 17 18 17 20 21 21 22 25 28 31 33 34 38
67 64 78 71 66 66 59 61 59 56 56 46 56 56 55 51 47 46 39 33 27 22 17 14 12 11 13 16 16 16 16 16 16 17 20 20 20 22 24 28 32 34 37 40
67 63 60 68 67 64 59 55 59 55 53 51 57 58 56 53 49 44 38 33 29 23 19 16 12 11 12 11 12 13 14 14 14 17 20 23 24 27 30 33 35 38 41 44
74 69 62 57 63 53 51 51 55 52 50 52 56 56 52 50 49 43 36 34 29 27 24 19 17 14 14 14 15 15 16 17 20 21 26 28 31 33 35 37 40 42 44 44
57 54 60 58 54 44 47 45 48 52 50 52 55 55 54 51 47 40 37 35 31 28 25 22 20 20 18 19 20 21 23 24 27 27 31 34 36 38 40 42 43 44 45 44
54 53 51 50 50 42 45 42 42 48 47 49 52 52 52 49 47 41 37 33 31 31 29 27 25 24 24 24 25 26 28 29 31 32 36 37 41 41 43 44 45 44 43 44
49 47 47 49 47 41 39 40 37 40 45 46 49 49 49 47 44 40 37 35 34 33 32 30 28 28 29 29 30 32 32 34 35 37 38 40 43 45 43 43 42 43 45 46
44 45 44 45 42 36 39 40 35 34 39 42 46 46 45 44 41 39 36 35 35 34 32 32 32 32 33 35 35 35 35 37 40 41 42 44 43 42 42 42 44 45 45 46
41 41 40 39 39 35 36 35 35 35 38 40 38 41 43 41 39 38 37 36 36 36 34 34 35 35 37 38 40 37 39 40 41 41 41 44 41 45 45 45 45 46 47 48
37 36 36 42 36 32 34 37 35 36 32 34 34 38 40 41 40 39 38 37 37 38 38 38 38 39 40 43 40 39 39 41 39 40 41 43 44 45 45 46 47 48 48 47
31 31 38 38 38 38 36 42 34 38 36 33 33 32 35 38 39 39 39 38 40 40 41 39 39 40 42 40 38 37 37 38 39 41 42 43 44 45 47 48 48 47 46 48
33 38 39 36 33 35 40 41 32 34 32 33 35 35 34 36 36 36 37 37 39 40 40 41 42 42 39 35 34 36 37 39 41 42 43 44 46 47 47 46 46 48 51 54
30 31 32 32 34 32 33 35 39 39 33 30 32 33 34 34 35 35 38 39 41 42 40 40 40 38 33 33 35 37 40 41 41 42 43 44 44 44 46 49 51 54 56 58
28 28 29 29 28 28 30 26 34 32 31 25 26 27 28 29 31 33 34 35 37 40 37 36 38 32 33 35 38 40 41 41 41 42 42 43 45 48 50 53 56 56 55 53
21 24 26 30 28 27 28 28 26 24 19 20 23 25 26 26 27 28 30 33 35 34 35 37 34 33 35 38 40 40 41 41 42 42 44 47 49 52 55 54 50 50 51 54
19 17 20 27 27 26 25 23 23 22 23 22 22 23 24 25 27 31 32 35 36 38 37 35 33 35 37 38 39 40 41 42 44 46 48 51 53 51 47 47 50 53 56 58
24 22 23 21 18 18 18 20 19 20 21 23 24 26 28 29 32 34 36 38 39 38 35 34 36 38 38 39 40 42 44 46 48 51 53 50 45 45 48 51 54 56 58 59
29 29 25 26 29 23 23 23 23 26 27 28 29 29 31 32 35 36 38 40 41 39 37 35 34 37 40 42 45 47 50 52 53 51 46 45 47 50 53 55 57 58 60 60
31 32 35 36 33 31 33 33 35 34 32 33 36 37 37 36 34 33 32 31 32 34 34 38 41 44 46 48 51 52 52 50 45 44 46 49 52 54 56 58 59 60 60 59

GFSNW_500_spd_042.txt.gz
Wind_Speed
88 84 77 70 67 66 66 62 56 59 59 56 49 42 41 37 31 31 27 23 20 20 21 20 20 18 16 18 19 22 21 17 16 10 18 16 16 17 17 19 16 22 18 22
92 86 80 76 71 70 67 63 61 62 64 57 49 46 43 41 36 34 28 26 24 24 23 19 20 17 23 23 21 22 25 22 21 16 16 13 16 18 21 22 25 20 20 17
94 89 84 80 76 74 70 67 68 70 57 55 54 48 47 45 41 38 29 28 26 26 25 25 23 24 26 19 23 22 22 18 20 20 15 19 19 18 23 24 26 18 21 19
86 89 87 84 81 78 76 75 68 68 62 55 51 52 50 47 44 40 34 33 32 29 27 25 25 25 20 20 21 22 22 19 20 22 22 26 21 24 19 22 21 22 17 23
86 85 87 86 85 82 83 76 69 64 62 59 57 54 50 51 46 41 36 37 33 31 28 25 24 24 22 21 21 23 22 22 27 26 25 27 25 25 22 21 21 23 22 25
92 95 88 86 90 88 85 73 70 68 68 61 60 52 53 52 51 43 38 33 32 31 26 27 29 24 24 24 22 23 23 24 26 25 26 26 23 20 22 20 22 23 25 26
81 97 98 92 92 92 81 70 70 68 65 65 52 53 52 52 50 45 42 39 36 38 34 29 24 24 25 22 20 20 20 22 23 22 25 25 20 20 20 20 22 26 29 31
66 87 101 101 94 85 79 76 74 69 61 61 63 57 53 52 48 41 35 44 45 39 31 28 26 25 24 22 20 21 22 22 22 24 24 22 21 22 19 21 26 27 27 29
55 72 99 98 94 82 76 79 72 64 60 62 61 57 48 57 47 39 43 48 43 39 34 28 24 23 21 25 20 20 20 20 22 21 21 22 24 20 22 23 28 27 27 31
56 76 99 88 89 85 77 73 65 56 52 59 58 60 59 54 52 38 49 49 44 38 30 25 23 21 20 23 18 18 19 19 19 20 21 19 22 17 21 23 25 27 29 33
65 90 96 86 84 76 70 63 69 36 60 44 55 55 59 55 58 39 54 50 46 38 30 26 22 19 17 18 18 19 20 19 19 19 19 20 18 20 21 24 28 31 34 37
82 97 80 78 74 77 75 74 63 25 63 67 54 60 64 65 68 34 43 44 41 35 31 27 22 19 17 16 16 15 16 15 16 17 20 20 22 25 27 29 32 36 38 41
75 83 80 75 74 74 63 56 62 47 38 58 58 52 53 60 64 47 45 45 41 37 33 28 26 22 19 18 18 17 19 18 21 20 25 28 27 31 31 34 38 40 43 46
77 82 77 68 59 49 57 53 47 48 37 54 60 48 50 52 56 31 48 45 39 36 34 32 28 25 23 22 23 22 23 23 25 26 31 33 35 35 35 40 43 45 47 48
68 70 69 41 58 56 54 48 33 56 54 50 51 45 48 54 59 44 45 45 41 37 36 34 30 26 26 27 28 28 27 29 31 33 33 35 40 40 43 44 46 47 46 46
58 77 63 55 48 44 48 50 44 48 50 42 40 41 46 52 53 49 47 44 42 41 37 35 31 30 32 32 32 33 32 34 36 38 38 41 42 43 45 48 47 46 47 47
58 61 54 51 44 38 37 37 40 41 44 43 41 42 46 50 50 48 46 45 42 39 36 35 33 34 35 36 38 36 35 37 39 40 44 45 46 46 47 46 46 46 46 47
49 50 45 40 39 35 34 33 31 31 35 42 41 42 44 47 47 45 44 43 42 39 37 37 37 37 38 40 40 39 39 41 42 42 45 48 48 47 46 46 46 46 47 48
46 46 39 37 30 28 30 29 33 30 30 36 40 37 40 42 41 41 40 40 40 41 41 41 40 41 43 42 41 42 42 43 44 46 47 46 45 46 46 46 47 48 49 49
44 42 44 39 35 29 33 31 34 36 32 33 35 33 35 37 39 40 40 41 42 43 43 43 44 43 42 42 42 43 44 45 46 46 45 45 45 46 46 46 48 49 49 50
41 39 40 35 34 32 33 33 35 33 31 29 29 32 35 34 35 37 41 42 44 44 43 43 44 43 41 42 43 43 43 43 45 45 45 46 46 46 46 48 48 49 52 55
29 31 40 36 34 30 33 39 38 27 29 35 29 26 29 32 33 34 36 39 41 43 43 44 45 41 40 38 39 40 42 44 45 45 45 45 45 46 47 49 51 54 56 58
25 31 32 29 29 27 29 36 37 25 20 25 25 25 27 29 32 34 35 39 41 42 43 44 43 36 35 35 39 41 43 44 43 43 44 44 45 48 50 53 54 56 58 54
24 23 26 25 26 29 24 22 22 22 25 27 27 25 26 27 28 31 34 37 39 40 41 38 33 35 37 39 40 40 41 42 43 43 44 46 48 51 53 56 58 54 50 52
22 17 20 24 24 22 21 21 24 23 22 22 23 25 27 28 30 31 32 34 35 35 34 36 37 38 39 39 40 42 42 42 42 44 47 50 53 55 57 54 50 50 53 56
24 19 16 18 22 20 22 22 21 22 23 22 24 24 25 27 28 29 32 35 37 36 38 41 42 42 41 40 39 38 39 42 48 52 54 56 57 54 50 49 52 55 58 61
30 25 22 20 21 22 22 20 20 22 21 24 28 29 32 33 34 36 38 39 40 39 38 37 37 37 37 37 39 43 47 52 55 57 57 53 49 49 51 54 57 60 62 64

GFSNW_500_spd_045.txt.gz
Wind_Speed
88 83 77 72 69 66 63 60 58 55 55 51 46 44 41 37 34 33 33 29 27 19 16 13 13 15 12 11 21 26 25 21 29 4 11 10 10 14 16 17 13 19 14 14
92 87 83 77 72 68 65 61 58 61 58 52 46 47 46 44 38 39 38 33 28 24 23 22 21 18 19 19 24 25 20 24 23 19 10 9 14 16 18 19 21 18 20 12
95 90 86 83 77 72 69 66 65 64 58 51 49 46 48 46 41 41 41 35 30 27 27 29 22 22 25 24 25 23 21 24 22 19 19 18 19 19 17 21 26 23 21 15
97 94 90 85 80 77 76 74 66 58 54 54 52 55 55 50 46 42 43 40 33 31 30 31 33 26 28 25 22 23 23 22 21 22 22 22 26 22 17 21 17 20 13 18
88 96 96 89 85 82 82 78 63 55 51 52 54 55 52 48 45 43 46 40 34 36 34 31 27 27 25 19 20 23 24 23 24 25 24 24 26 22 20 24 22 21 19 18
86 91 91 94 91 90 88 75 65 58 53 54 57 52 52 49 47 46 43 38 32 37 32 28 32 28 24 24 24 24 25 25 26 27 26 27 28 19 24 22 22 22 24 25
76 93 95 91 96 93 84 71 68 63 57 56 50 53 52 51 48 49 47 40 37 37 35 33 33 30 30 25 25 25 26 27 27 24 25 28 21 24 20 21 22 24 25 25
60 80 98 102 97 94 86 74 70 68 63 52 53 54 51 46 49 51 49 44 41 41 39 36 32 32 30 27 25 25 24 24 25 25 25 25 23 21 17 22 23 23 23 24
54 61 82 100 96 91 87 81 73 67 63 54 50 50 51 50 51 49 52 44 44 44 43 41 39 36 31 29 26 25 25 22 25 24 25 24 22 22 19 23 26 22 24 26
48 54 66 89 97 93 87 85 75 66 60 55 55 52 50 49 51 54 51 47 43 49 48 41 39 37 30 30 26 24 26 26 24 24 23 23 20 18 21 25 25 22 24 25
57 58 59 80 96 91 85 81 78 67 61 56 53 52 54 52 54 53 50 46 44 46 43 42 40 35 30 29 24 24 26 25 22 21 19 20 19 19 20 20 21 24 27 29
49 44 50 74 89 88 83 73 69 64 61 54 49 47 50 55 49 51 49 42 43 39 45 43 37 31 29 26 23 25 26 24 22 21 19 19 19 18 17 20 25 28 30 33
45 46 50 71 89 83 76 68 61 61 62 50 43 50 51 56 51 56 58 48 47 47 41 37 35 32 29 25 21 22 19 19 18 19 19 20 20 22 23 26 30 32 35 38
54 59 69 82 82 76 72 64 58 54 51 45 36 45 60 58 47 42 42 46 52 46 40 38 37 31 29 25 25 22 19 20 19 22 23 24 26 28 29 32 34 37 40 42
68 77 86 81 69 65 58 50 46 43 63 28 55 49 55 57 54 52 51 35 34 41 42 42 38 33 29 28 28 26 24 22 24 25 27 30 33 35 36 39 41 43 44 45
85 89 85 78 66 62 38 66 60 29 30 38 48 56 48 54 40 35 47 53 38 45 45 42 38 34 31 31 31 28 27 28 29 31 32 33 36 38 41 44 45 46 46 47
83 84 82 62 42 39 32 34 57 29 46 39 46 45 48 46 40 44 53 37 48 49 46 43 38 35 33 33 34 33 32 32 34 36 37 37 39 42 44 46 47 48 48 47
72 72 61 40 33 31 29 45 29 23 33 41 52 52 49 43 36 39 47 47 39 40 46 41 39 38 36 37 36 35 34 35 37 39 41 43 44 45 47 47 47 47 47 48
46 41 42 31 27 30 31 33 30 30 27 31 35 38 39 38 36 39 45 46 50 43 44 43 41 39 41 39 38 38 39 40 40 42 44 45 48 49 49 48 48 48 49 49
44 43 34 37 31 26 25 27 26 27 28 32 35 35 32 30 32 36 40 43 45 45 43 43 44 43 42 42 42 42 43 43 44 44 45 48 50 49 49 48 49 50 50 50
33 30 33 30 27 20 20 25 24 24 25 24 28 30 31 30 31 33 36 38 41 43 43 45 46 44 42 44 44 44 44 44 45 47 49 49 49 48 48 49 49 50 49 50
33 32 31 24 24 22 22 25 25 26 27 23 21 25 29 29 30 34 37 39 41 44 44 44 45 42 42 43 43 43 45 46 47 48 48 48 48 48 49 48 48 48 50 52
32 29 34 28 24 25 23 22 22 27 30 23 23 22 25 27 29 31 33 36 39 40 42 43 41 39 40 40 41 42 43 44 44 45 47 48 48 47 47 46 48 50 53 56
32 31 31 36 26 25 23 20 25 28 21 17 22 25 22 22 24 28 33 36 38 39 38 36 36 37 37 37 37 38 41 42 46 47 46 46 47 47 47 46 50 55 58 60
23 23 26 32 24 21 22 18 18 18 25 18 19 21 22 23 26 27 29 31 35 35 32 33 33 34 36 37 40 43 44 45 45 46 47 46 45 46 48 53 58 61 60 56
16 18 20 24 21 21 21 19 14 17 20 19 21 23 22 23 26 26 27 28 29 29 30 33 36 38 39 41 43 45 44 42 41 40 42 46 49 52 57 62 62 57 54 54
18 14 14 10 11 17 17 15 18 20 21 21 21 22 24 24 27 27 27 29 31 33 34 38 41 43 42 42 41 40 39 40 42 45 49 51 55 59 61 58 54 53 55 58

GFSNW_500_spd_048.txt.gz
Wind_Speed
97 92 87 80 77 73 69 66 63 60 58 57 52 45 46 48 32 36 33 32 30 24 19 20 19 21 21 19 20 27 27 26 26 21 26 25 23 16 20 17 14 16 18 16
100 97 91 85 80 76 72 69 68 66 61 57 51 46 44 50 36 37 37 35 34 28 22 23 21 23 20 17 21 27 28 26 20 20 19 14 15 20 19 20 21 22 23 15
101 100 95 90 85 79 75 75 74 70 63 56 51 47 43 50 38 40 38 36 35 29 26 25 25 24 22 19 21 24 22 21 24 21 16 21 21 21 21 21 22 22 23 20
97 102 100 93 89 83 82 81 76 69 63 58 54 53 50 51 46 43 42 41 36 31 31 29 29 30 29 24 26 27 25 25 23 21 20 23 24 26 23 25 24 24 19 20
92 103 103 96 90 88 87 82 74 67 59 56 56 55 50 48 48 46 44 41 36 35 32 32 29 29 30 27 28 30 29 27 25 24 23 25 27 28 26 22 23 26 26 23
74 99 103 99 96 96 87 83 72 65 61 60 59 53 52 51 47 49 44 42 41 38 31 33 32 35 32 30 28 23 23 25 25 26 25 27 30 26 30 30 30 28 27 26
58 92 101 102 100 95 85 80 72 65 63 61 53 53 55 55 49 43 42 43 42 33 30 37 36 37 35 29 30 27 24 26 28 27 27 32 29 30 30 28 27 26 26 24
43 78 96 103 100 95 87 81 75 67 61 55 56 56 56 59 49 48 44 46 46 43 38 37 36 38 39 36 32 29 29 28 28 30 30 31 28 30 26 24 26 25 24 23
32 56 86 98 101 95 88 84 78 71 63 54 54 56 55 57 47 48 47 48 48 47 46 40 39 41 39 36 34 32 30 28 29 31 30 31 24 28 27 24 27 23 22 22
34 41 63 82 93 93 90 87 80 73 68 62 58 57 56 54 42 43 49 48 49 48 45 44 42 40 43 38 35 31 29 31 32 31 31 30 24 25 27 25 21 19 22 25
33 33 48 65 82 91 92 87 80 72 66 65 60 57 56 53 45 45 45 49 50 48 46 41 41 43 46 41 37 31 32 33 31 31 30 29 23 24 22 19 21 21 24 26
35 36 46 51 73 91 90 86 81 72 66 63 59 57 52 52 48 44 44 45 45 43 41 40 44 46 44 42 36 33 34 31 31 29 28 24 22 20 19 17 20 23 26 28
46 55 58 52 64 86 90 86 80 74 67 63 56 50 50 47 49 47 43 43 44 44 41 40 45 54 44 39 37 34 33 33 30 29 27 25 22 18 18 21 24 26 28 31
42 45 41 43 55 79 86 88 82 75 70 45 41 45 41 43 42 45 42 39 41 42 43 40 43 40 40 39 37 34 30 28 28 26 24 22 22 23 24 26 28 30 33 35
46 48 42 43 58 78 85 83 78 73 67 47 39 39 37 35 31 38 39 40 42 41 41 44 43 35 31 37 35 34 30 27 26 25 25 25 26 28 29 30 33 35 37 39
41 38 48 53 67 76 80 77 72 66 60 55 38 31 32 33 39 37 32 42 42 47 52 48 34 38 39 39 37 33 31 29 27 27 28 29 30 32 34 36 38 40 41 42
39 47 51 57 65 73 71 58 43 46 41 43 43 27 42 34 36 39 39 47 41 39 39 40 45 45 44 44 39 34 33 32 30 30 31 32 34 36 38 40 42 43 44 46
57 56 60 65 64 60 60 43 34 28 30 41 51 25 26 37 44 43 51 45 42 37 33 34 38 40 41 43 41 37 34 32 33 33 34 35 37 40 43 44 45 46 47 49
64 64 62 64 65 59 52 33 43 31 26 24 56 52 43 45 43 33 34 33 34 42 48 36 37 41 44 42 39 37 37 37 37 37 38 39 41 44 45 46 47 49 49 50
68 71 64 50 47 41 36 38 36 24 21 38 33 35 43 39 39 34 38 35 38 40 47 41 44 44 42 42 41 41 39 40 41 41 42 43 45 46 47 49 51 51 51 51
49 28 29 42 24 25 26 29 43 28 16 18 21 27 38 36 40 37 34 33 30 31 44 43 45 43 39 40 40 41 44 44 43 44 45 46 47 48 51 52 51 51 51 52
31 44 41 36 28 24 21 19 17 16 15 17 22 31 34 35 33 32 32 31 33 35 37 40 43 45 42 41 42 44 45 45 45 45 46 48 49 50 50 50 50 52 52 51
16 30 27 21 19 18 17 15 15 16 16 17 17 20 29 33 35 33 32 33 34 35 37 38 39 39 40 42 41 41 41 43 45 47 48 49 48 48 49 51 52 51 51 51
22 25 23 21 17 12 11 11 13 15 15 19 20 20 21 22 25 28 31 31 31 34 36 35 34 36 36 36 36 38 40 42 43 44 46 47 48 50 51 51 52 51 53 53
16 16 20 21 16 12 11 12 12 13 13 16 23 21 22 22 26 28 29 31 32 32 31 32 34 34 34 34 35 37 38 40 42 44 46 48 50 51 51 49 49 52 54 58
17 17 17 17 20 23 16 11 12 10 13 15 22 14 18 22 23 23 25 26 27 26 27 28 30 31 33 34 36 37 41 44 47 48 50 49 47 46 47 49 52 56 61 65
15 15 17 16 15 17 18 18 16 16 16 13 17 17 19 21 24 24 24 25 26 28 28 29 32 34 36 38 39 43 46 46 45 43 42 42 45 47 51 55 60 63 65 63

GFSNW_500_spd_051.txt.gz
Wind_Speed
72 96 98 93 88 84 80 75 71 65 65 65 55 47 47 49 45 46 46 45 40 30 29 25 20 14 14 19 23 30 29 29 31 26 24 23 23 21 24 21 22 20 21 18
42 87 102 99 94 89 83 79 75 71 69 65 53 49 47 52 46 47 46 43 42 39 32 28 18 16 18 24 27 30 30 33 30 30 30 26 21 15 23 25 23 26 24 17
44 50 100 102 98 92 88 84 82 77 76 63 59 53 50 51 46 48 48 45 44 41 32 26 20 20 20 25 28 26 27 30 32 25 19 20 18 17 24 25 25 28 23 20
43 37 78 104 100 94 94 91 86 78 75 67 61 58 54 51 56 54 47 44 43 40 32 27 23 22 22 22 27 28 25 24 25 22 23 22 24 26 25 26 24 24 24 24
42 41 45 99 101 97 96 93 86 81 71 66 63 62 56 53 50 60 55 48 45 41 35 28 25 24 26 24 27 28 26 25 27 29 23 21 23 28 31 30 25 26 30 30
42 43 43 75 103 102 100 94 87 80 74 71 70 59 56 54 48 53 53 48 44 41 35 30 29 30 29 27 28 30 27 28 28 28 28 28 29 24 28 29 30 29 32 33
42 41 42 62 97 102 99 92 86 80 76 73 62 62 61 55 50 50 46 46 46 43 39 35 32 34 35 31 32 32 30 29 32 32 30 35 23 25 27 32 33 33 33 34
40 39 41 58 85 104 99 93 87 83 78 73 70 66 61 61 56 53 50 50 50 45 42 41 41 40 39 38 35 31 31 31 31 33 31 30 30 27 29 32 32 31 31 31
37 35 33 47 77 98 98 94 87 83 78 72 69 67 63 61 58 54 53 49 54 51 47 46 44 43 39 36 37 33 31 30 32 34 33 32 26 28 28 30 32 28 27 26
33 30 30 45 70 91 99 95 87 83 78 73 70 67 64 60 59 52 51 51 54 52 50 47 44 45 40 37 38 34 33 33 35 34 34 32 32 30 30 33 23 24 25 26
31 27 27 40 65 86 98 93 87 83 76 71 68 65 61 60 58 52 52 53 58 54 56 47 48 46 42 39 38 35 34 35 34 34 34 35 33 33 30 25 26 24 26 27
30 24 21 39 64 82 96 92 84 78 74 69 65 62 61 57 57 47 48 55 57 55 52 51 50 47 42 37 38 39 36 35 36 35 35 35 32 29 26 25 24 25 26 26
30 22 19 37 66 81 93 89 82 78 72 67 65 61 57 55 51 49 49 53 55 53 53 45 46 44 39 35 34 37 36 38 40 37 36 34 31 29 28 27 27 26 25 26
25 23 26 41 61 73 86 83 79 76 74 68 64 59 55 50 48 48 50 46 49 50 48 48 46 41 39 38 37 37 39 42 38 35 34 31 29 27 28 27 27 28 28 30
24 26 34 53 56 63 81 80 78 75 70 69 65 58 49 38 35 40 47 46 44 43 44 45 42 41 41 39 43 40 47 39 29 31 29 31 28 27 26 27 28 29 31 32
32 35 48 55 46 61 75 80 78 76 73 66 59 52 36 31 29 34 43 44 42 40 40 40 44 42 42 42 36 32 42 35 32 33 32 31 29 29 30 32 33 34 34 36
39 43 38 41 56 60 73 77 76 69 63 46 41 39 47 35 32 30 34 34 37 38 38 40 39 40 41 39 36 34 31 30 32 33 34 34 32 33 34 35 37 38 39 41
33 32 32 43 55 62 71 70 68 65 61 50 44 44 43 38 33 31 31 32 35 38 38 42 41 38 43 42 38 36 35 36 36 35 34 35 35 35 37 38 39 42 44 45
32 37 45 53 55 57 60 64 60 63 60 53 41 34 29 19 24 33 33 35 39 39 41 41 40 42 43 36 46 42 38 37 37 38 40 38 37 38 39 41 44 46 47 48
50 55 55 51 51 53 53 51 49 42 38 44 41 34 35 37 22 34 41 36 37 38 50 55 50 48 39 35 37 33 35 39 40 41 41 41 42 43 44 46 47 49 50 50
58 52 49 52 53 51 47 39 39 29 27 26 25 20 25 44 40 39 48 40 38 38 30 29 45 37 34 34 43 38 38 42 43 41 41 44 45 46 47 49 50 50 51 52
58 43 52 55 54 34 21 31 28 27 24 25 19 26 28 29 35 33 28 32 36 36 33 28 31 34 44 43 43 42 39 38 37 39 42 44 46 49 49 50 50 51 51 51
47 48 39 31 18 12 8 19 27 31 10 11 17 20 23 32 36 30 31 34 36 34 34 33 31 32 35 42 41 38 39 42 43 43 44 46 48 49 48 48 49 50 52 53
20 19 21 27 24 22 20 18 16 16 11 11 13 14 17 22 26 31 35 34 31 32 32 30 27 28 31 34 37 40 41 42 44 46 48 48 47 46 47 49 50 51 53 55
18 21 19 15 13 10 11 10 8 7 7 7 11 15 17 18 22 28 32 31 34 33 28 27 28 30 32 35 38 41 43 45 45 45 44 42 43 46 48 50 52 54 53 52
12 9 12 12 11 9 7 5 4 5 10 14 15 17 24 24 24 22 22 23 26 28 29 31 33 34 35 38 38 37 37 38 39 41 43 43 45 48 49 50 49 49 50 52
14 12 13 14 12 14 17 18 13 11 12 12 13 21 18 20 23 24 23 24 26 27 29 30 30 31 32 32 32 35 38 40 42 43 45 47 47 47 47 48 50 53 55 58

GFSNW_500_spd_057.txt.gz
Wind_Speed
63 64 60 61 54 54 73 86 89 83 79 76 72 64 57 52 49 49 46 43 42 37 39 38 32 30 25 23 19 16 17 17 17 20 21 22 26 27 30 28 24 21 20 13
66 64 64 61 62 56 59 78 89 88 83 82 71 63 63 55 51 51 48 46 44 41 38 38 36 30 29 27 24 19 19 18 17 23 24 28 26 28 28 27 29 29 25 18
67 63 66 63 66 59 54 61 86 92 87 79 72 69 66 58 52 51 52 49 46 43 40 39 39 35 30 29 27 25 25 22 17 14 16 23 26 23 26 30 30 28 23 14
63 65 64 64 67 65 61 57 73 92 91 87 74 71 68 63 54 51 52 51 48 45 42 41 38 34 34 33 31 30 28 23 17 13 15 22 25 26 27 27 26 28 25 24
63 66 65 64 67 68 65 53 59 85 87 80 82 77 70 65 57 50 53 52 49 45 43 42 40 35 34 34 33 33 28 23 19 17 16 20 24 24 28 27 27 28 30 29
62 65 65 65 66 68 63 48 40 63 88 87 84 76 72 67 60 53 51 49 46 47 39 41 41 37 37 37 35 34 30 27 21 20 18 20 21 18 22 24 27 28 28 25
53 61 62 62 64 63 58 45 39 51 82 88 83 79 73 67 59 53 51 48 47 40 39 43 42 41 41 40 37 34 31 24 23 24 24 27 13 17 21 24 21 23 25 24
54 55 58 60 60 61 58 46 37 45 75 86 84 83 77 72 64 55 51 48 46 46 38 44 44 42 43 43 40 36 31 26 28 29 27 22 18 12 14 19 17 20 22 24
54 53 55 57 56 60 52 45 38 39 70 84 85 84 80 73 66 59 53 51 51 47 46 43 46 47 45 45 43 40 33 29 30 30 29 23 15 18 18 20 15 17 23 24
45 47 51 51 53 55 47 40 37 40 60 84 86 86 80 74 68 58 55 48 47 46 53 49 48 50 47 45 43 39 33 30 31 31 29 25 20 20 21 23 20 21 25 27
47 45 48 47 50 49 42 37 33 39 59 80 87 85 81 77 70 62 55 52 51 50 52 60 54 53 51 48 41 43 37 36 32 33 32 26 19 22 24 21 23 27 29 30
44 46 45 45 46 43 39 33 31 37 50 78 86 85 80 75 71 62 57 52 49 47 48 51 56 57 53 50 48 43 41 35 31 33 32 27 24 24 26 25 25 29 32 32
40 40 42 42 42 37 34 32 30 37 52 70 78 80 79 76 71 64 57 51 52 52 50 49 48 49 47 50 48 46 42 37 37 34 29 26 27 27 27 27 29 34 33 32
39 40 39 38 34 31 28 28 28 34 40 62 53 74 75 68 68 62 55 52 52 50 50 50 50 49 46 44 44 44 42 40 37 34 27 27 27 25 27 30 35 36 33 32
34 32 31 30 30 29 27 27 33 30 22 57 71 60 55 66 65 61 55 51 50 49 50 51 49 50 47 44 44 44 42 41 38 34 31 34 30 28 30 33 37 31 29 31
28 27 27 28 27 28 27 27 37 41 34 48 57 63 59 55 60 48 40 50 49 49 50 50 48 47 48 47 46 40 39 40 41 38 37 36 33 34 34 35 36 33 31 32
25 27 30 30 28 28 25 35 45 37 36 37 51 31 46 55 53 47 47 43 45 49 49 51 49 45 44 48 49 39 38 41 40 40 39 35 37 36 36 32 33 36 34 33
25 26 27 25 25 19 28 40 39 45 42 37 55 35 39 45 29 24 42 38 42 45 48 47 47 46 44 48 39 38 41 41 39 40 40 39 37 42 40 36 33 32 32 33
24 23 21 17 43 48 32 29 26 37 39 39 57 45 35 34 30 27 28 28 30 38 42 44 42 42 45 41 32 32 38 39 38 39 40 40 41 43 38 41 42 41 39 40
27 21 48 57 46 38 31 38 33 40 41 36 53 46 41 42 37 29 32 20 14 24 33 35 35 33 32 33 36 36 38 38 37 40 40 41 42 45 42 39 45 46 48 48
37 36 57 42 31 28 31 29 25 42 42 45 44 45 45 41 32 24 24 21 18 21 22 24 25 24 29 32 33 35 35 36 39 40 41 44 46 46 45 44 49 48 48 47
32 37 45 32 25 19 11 23 29 40 40 36 32 29 26 24 27 26 23 21 23 23 22 23 22 24 30 29 32 35 36 36 37 41 44 46 48 42 38 43 44 48 47 49
45 40 28 19 17 18 12 23 30 31 28 26 24 26 25 24 27 23 22 22 22 24 26 30 31 26 20 31 36 37 40 35 38 33 39 34 37 39 43 48 51 49 42 45
41 30 26 26 22 24 24 23 24 24 23 25 28 30 34 21 15 17 20 19 21 25 24 22 24 26 27 33 41 34 29 29 32 34 30 37 44 47 44 39 32 43 43 41
21 14 20 26 25 25 25 25 27 25 26 25 21 19 19 18 18 22 25 23 23 27 29 27 27 27 26 28 30 26 25 27 30 30 30 34 34 35 41 39 40 47 52 53
7 15 20 24 23 19 17 19 21 22 19 18 23 23 19 24 26 27 29 31 33 29 28 27 25 24 23 24 27 28 29 29 30 29 33 34 37 39 43 46 48 49 48 48
20 22 23 21 19 18 17 16 18 23 22 20 19 20 21 15 18 20 19 20 20 19 20 20 18 17 18 20 22 23 24 30 34 35 38 42 44 45 43 42 44 48 51 56

GFSNW_500_spd_060.txt.gz
Wind_Speed
73 69 61 62 60 62 63 58 70 77 83 82 83 75 63 62 62 52 48 49 47 40 41 31 31 29 25 27 27 25 22 23 20 18 18 21 24 27 30 28 26 22 24 17
69 71 68 66 63 63 66 58 59 68 78 86 83 72 69 66 64 55 49 49 47 46 40 41 36 30 31 30 29 29 25 26 24 22 20 21 23 23 25 27 25 23 27 24
63 70 70 67 65 63 64 66 63 61 68 82 79 80 74 69 66 57 51 51 50 47 46 41 37 36 33 35 34 32 30 29 25 21 17 19 23 25 25 25 28 22 24 23
52 60 66 67 65 65 66 70 65 48 63 83 85 81 74 74 70 59 55 53 52 49 47 44 36 36 37 37 37 36 36 35 25 20 19 24 23 23 26 30 27 28 21 24
47 56 51 65 65 65 69 66 62 51 40 55 83 84 83 76 71 60 57 54 52 51 48 41 38 36 36 40 37 38 37 35 28 24 22 22 22 21 26 26 28 27 26 24
46 52 59 65 64 66 68 62 58 54 45 51 74 88 80 77 74 62 60 54 51 52 51 39 41 40 40 40 39 39 39 37 31 27 24 23 17 14 19 20 21 21 24 23
49 52 53 60 60 63 60 58 57 52 49 46 65 81 81 78 75 66 65 58 54 50 38 43 40 43 42 43 40 39 38 36 32 31 26 28 13 16 18 18 18 23 24 21
53 55 59 63 56 55 60 60 55 54 50 31 54 76 84 79 78 69 63 57 50 46 46 48 44 41 43 41 43 39 35 35 34 32 28 25 19 13 15 18 17 20 19 20
55 56 53 62 53 50 58 58 54 54 47 30 38 71 81 82 80 70 62 58 53 47 51 46 46 46 42 44 43 42 39 36 35 34 32 27 15 15 17 20 9 14 20 20
52 51 55 52 49 50 56 55 51 51 45 39 38 61 79 81 81 67 65 58 54 48 49 46 44 44 46 45 44 46 42 38 36 32 32 26 18 17 19 22 8 24 22 23
49 51 49 45 48 51 54 51 49 49 45 39 35 50 77 83 73 65 67 59 55 47 49 49 51 47 48 50 47 44 42 40 37 34 34 30 19 22 24 20 22 23 25 26
48 42 43 47 49 51 51 49 50 47 44 39 33 30 53 82 80 61 64 55 54 52 51 51 50 51 45 49 49 43 45 41 38 36 33 30 30 28 25 25 26 24 26 29
36 37 41 44 46 47 45 46 45 41 39 36 34 33 42 59 71 79 63 57 53 52 50 48 48 51 52 49 47 45 45 42 42 38 34 31 31 29 27 29 30 27 29 32
36 37 40 43 43 39 41 43 39 35 32 32 38 32 28 33 59 75 67 59 56 52 51 49 47 45 45 51 50 46 43 44 45 41 36 33 35 34 31 32 31 30 31 31
35 38 41 38 36 38 40 37 34 31 28 29 47 42 39 27 43 73 63 58 56 52 51 51 48 44 43 41 40 42 41 42 46 43 39 40 41 35 30 33 34 33 34 34
38 38 37 35 32 33 35 32 30 29 28 32 33 54 46 33 33 38 63 56 52 51 49 47 46 44 45 43 41 35 33 33 32 36 41 43 41 37 35 35 35 36 38 39
35 34 31 33 33 31 30 27 23 27 28 31 35 37 53 41 33 35 46 55 51 49 50 49 45 42 44 46 42 30 31 33 32 32 34 35 39 41 41 40 37 39 38 39
29 29 30 30 30 29 27 25 29 30 26 26 41 38 37 30 31 41 44 48 48 49 47 46 44 43 44 49 39 31 30 27 28 33 34 36 40 41 43 40 41 42 43 40
25 24 25 26 28 28 26 25 34 30 21 21 49 44 44 34 30 30 35 36 41 43 43 43 43 44 48 41 33 29 29 30 30 33 39 39 40 42 42 44 45 45 46 42
22 21 21 22 21 23 25 28 42 34 27 44 51 42 34 21 37 35 36 41 41 37 35 36 42 43 37 38 36 31 30 33 33 34 37 40 42 44 47 49 45 45 45 45
20 16 18 24 28 30 31 32 40 37 36 45 41 27 38 34 32 32 29 30 31 32 29 23 40 40 35 33 31 31 32 33 38 41 40 39 41 42 43 45 47 45 46 46
22 25 28 25 28 31 21 18 20 30 46 53 43 37 42 37 34 28 19 33 31 20 15 16 17 21 24 28 28 30 31 33 34 36 39 41 40 41 41 44 46 45 47 46
40 35 33 31 31 26 20 19 30 31 52 49 37 43 45 41 33 22 17 20 18 18 15 16 17 20 22 20 19 20 29 31 31 34 37 38 38 42 46 42 43 49 46 44
25 24 20 10 11 10 16 33 37 36 54 47 33 26 26 26 26 27 23 23 24 22 19 19 22 22 24 28 27 28 25 32 37 38 37 38 36 35 38 34 33 36 44 46
19 15 12 15 9 16 32 37 42 41 38 36 32 29 25 26 25 23 23 23 23 22 24 24 24 22 21 22 24 24 25 26 29 33 34 34 35 37 36 35 36 37 38 39
11 17 21 27 28 24 26 27 26 26 26 26 25 28 33 30 20 17 19 22 25 25 23 23 23 24 27 29 29 28 28 29 32 33 30 30 32 33 34 36 37 42 41 46
20 18 16 16 15 13 17 22 23 20 18 20 25 26 24 25 22 18 24 26 26 27 29 30 29 26 24 26 27 27 27 30 31 30 30 31 34 37 39 41 44 48 51 51

GFSNW_500_spd_063.txt.gz
Wind_Speed
64 64 62 59 56 55 55 53 49 51 53 58 70 82 69 68 67 65 63 55 48 47 47 39 37 36 34 32 35 39 34 32 29 22 19 21 18 23 24 26 23 26 25 19
68 68 69 66 63 60 59 58 55 56 59 56 64 75 75 76 74 68 65 55 52 46 47 47 33 35 33 38 39 39 38 38 31 22 25 22 22 21 22 25 25 27 25 20
73 72 73 72 67 62 60 64 63 60 61 54 46 65 82 81 75 71 66 60 53 48 48 48 44 30 39 32 36 36 37 37 36 28 18 18 19 23 24 25 28 26 26 18
73 73 69 64 64 65 61 70 69 61 58 51 38 57 76 81 78 71 69 64 53 50 49 52 42 35 39 32 39 37 42 40 35 31 25 21 19 22 24 26 27 28 24 22
60 63 59 60 63 66 68 73 68 60 58 59 51 49 69 81 77 72 72 65 55 51 49 51 42 41 38 37 37 40 39 41 37 34 33 28 28 25 24 23 24 27 26 25
57 58 61 66 63 63 72 68 65 61 63 60 61 48 57 73 76 75 72 65 55 55 50 51 51 44 42 45 41 41 43 43 38 37 31 30 34 25 24 24 25 23 26 23
53 48 50 58 69 69 70 60 61 64 65 60 48 41 48 62 76 74 69 59 57 51 50 49 47 45 45 36 38 44 43 41 40 35 35 40 22 24 21 25 22 24 26 24
47 47 51 57 61 75 65 59 62 62 60 54 56 51 43 56 69 74 71 64 61 52 51 47 45 45 42 38 39 40 42 37 41 39 38 34 31 27 21 20 21 22 24 21
49 51 52 50 56 66 60 57 54 52 56 53 51 49 42 47 66 73 70 64 60 62 53 50 50 46 39 40 43 47 37 36 37 38 40 42 25 24 20 24 23 21 22 27
51 53 47 50 57 66 54 53 54 50 55 42 40 47 37 38 56 67 63 72 58 56 50 52 51 45 51 45 43 39 49 44 40 38 39 34 27 27 22 29 8 19 25 29
53 51 47 57 52 49 54 49 50 42 46 46 47 45 39 31 46 64 64 59 66 51 53 54 53 51 48 48 42 45 47 43 44 36 39 39 30 25 25 16 24 26 28 32
50 51 52 59 56 57 46 45 44 43 43 35 37 37 34 29 35 62 61 54 52 52 53 54 54 52 49 47 46 41 34 40 43 43 40 33 30 29 27 24 23 28 30 32
47 48 49 58 52 45 42 40 40 41 38 25 33 38 35 24 31 56 63 55 51 52 51 51 51 49 41 44 44 44 46 42 40 41 37 36 34 33 30 28 28 32 32 33
44 46 52 52 49 46 41 39 36 40 37 31 30 31 31 24 27 39 66 53 52 55 53 55 51 47 45 45 47 45 45 47 47 45 43 40 40 35 31 34 36 35 34 35
44 39 42 46 44 39 37 33 36 46 37 34 29 27 24 26 29 54 58 61 52 59 51 53 55 51 47 46 45 44 42 40 42 43 42 42 45 37 39 37 37 36 38 38
40 40 41 39 36 35 35 37 39 42 40 34 30 26 27 22 27 33 45 61 49 45 50 51 53 48 47 45 41 36 35 46 43 40 40 44 44 42 45 45 42 40 42 40
36 36 35 36 37 35 37 38 34 32 29 27 20 31 31 33 27 23 30 45 63 48 44 47 46 48 46 45 41 27 31 33 32 34 35 33 34 34 31 39 45 45 47 46
37 37 37 37 37 36 34 32 32 28 24 19 19 34 32 32 29 27 29 27 52 58 41 43 44 43 42 47 39 28 31 29 28 28 29 32 35 36 38 41 43 46 48 49
33 33 35 35 34 32 30 30 27 25 19 15 16 33 36 35 35 30 29 29 37 54 54 49 45 44 43 41 28 31 26 26 27 29 31 30 34 39 41 44 45 47 48 48
24 25 28 28 28 27 26 24 21 16 12 11 13 26 55 41 34 34 37 31 36 43 46 43 42 40 37 40 34 30 28 26 26 28 32 34 36 39 41 45 47 47 45 48
21 22 21 21 22 22 21 18 18 16 9 12 27 31 46 47 39 36 31 29 28 31 34 33 33 31 34 35 30 31 29 30 33 35 36 38 40 42 43 42 41 42 43 44
15 15 15 16 18 19 22 22 22 19 21 39 40 44 39 33 37 37 31 31 29 26 27 26 26 27 28 34 37 33 31 29 31 33 35 36 36 38 41 42 41 41 42 45
34 27 21 16 21 17 15 16 25 29 37 55 52 20 15 14 20 43 43 39 35 29 28 29 27 22 16 18 23 24 23 23 25 30 30 30 33 34 36 38 40 43 45 46
27 24 24 24 21 18 17 15 19 20 34 55 28 21 20 25 32 20 26 29 31 26 27 29 24 19 18 18 20 24 25 24 24 24 27 32 35 38 39 42 41 42 45 46
18 19 11 11 4 9 16 19 23 38 54 37 21 20 20 19 16 18 18 15 16 17 18 20 22 22 21 23 24 26 28 31 32 33 30 30 32 34 38 39 40 39 38 37
22 25 21 16 15 19 32 49 48 41 30 26 28 25 24 22 20 21 18 17 15 16 18 19 21 22 22 22 24 26 28 30 31 32 33 34 36 36 38 36 37 39 42 41
25 27 28 28 30 33 55 53 48 39 34 34 37 34 28 25 24 22 16 15 18 17 19 23 26 26 27 30 32 33 33 33 33 34 36 37 37 37 36 35 37 39 42 44